GFSMW_500_rhum_000.txt.gz
RH
62 52 42 36 35 35 32 26 17 7 1 1 1 0 0 0 0 1 1 1 2 2 2 3 4 4 3 4 4 4 4 5 5 4 5 5 6 19 40 40 37 39 43
52 42 39 35 32 30 22 11 4 1 3 3 2 2 4 6 7 8 10 11 11 13 15 16 17 20 22 23 23 22 22 22 25 25 23 23 33 42 44 47 54 61 62
42 38 35 35 34 24 6 0 1 4 6 8 10 12 13 17 19 20 19 18 18 18 19 19 21 24 27 31 35 37 38 38 41 43 42 39 38 45 67 67 68 71 74
40 39 34 28 19 4 1 7 10 11 11 11 15 20 21 20 21 22 23 28 29 31 30 30 30 30 31 32 32 31 30 29 29 30 32 32 27 24 22 40 50 50 64
32 25 13 4 3 7 11 10 12 16 21 23 23 24 26 30 32 32 30 27 25 22 21 20 20 20 22 22 24 24 24 24 24 24 24 23 22 26 33 24 50 67 71
18 8 5 7 8 9 15 25 30 37 36 34 33 32 28 24 19 15 14 14 16 16 16 16 17 17 17 17 17 17 18 18 19 20 27 38 47 56 64 67 66 73 92
4 5 6 12 20 30 39 39 39 36 31 26 21 16 13 10 10 12 16 21 24 25 27 28 29 31 34 36 38 39 43 46 46 47 52 66 77 83 86 88 86 91 84
8 14 24 41 44 40 36 33 29 24 20 16 13 12 15 21 26 25 19 14 11 8 6 5 5 6 7 12 21 28 37 45 52 57 61 62 61 62 72 78 79 80 84
21 42 43 40 34 32 27 24 20 17 16 19 24 25 18 8 5 6 7 7 8 8 8 8 8 8 9 9 10 11 12 14 16 24 37 48 55 66 70 71 75 76 67
46 43 39 33 28 24 20 18 19 24 24 10 4 4 7 9 9 9 8 8 8 8 9 10 10 11 12 13 13 15 18 23 25 31 40 51 66 76 80 76 76 80 75
38 33 28 24 24 22 26 30 28 11 6 8 8 9 10 10 9 8 9 10 10 11 10 11 11 11 12 13 15 18 21 26 40 52 65 73 86 84 82 77 74 70 68
27 26 27 31 37 35 24 12 9 10 11 12 13 12 12 11 10 11 11 12 11 12 13 14 13 13 12 14 18 26 35 53 67 75 78 86 90 83 80 75 71 68 68
28 25 31 38 22 12 11 13 13 14 15 16 15 14 13 14 14 14 13 12 12 14 14 15 15 14 15 16 26 44 71 80 95 100 97 90 87 88 89 86 83 84 82
38 32 20 15 14 14 16 18 20 19 18 17 16 17 16 14 13 12 11 12 14 15 15 13 13 15 20 36 56 68 83 91 92 90 92 98 99 98 96 98 98 100 100
16 17 17 18 19 20 22 22 21 19 18 19 18 15 13 11 10 11 11 12 10 8 8 9 13 20 34 63 96 100 99 100 100 100 100 100 100 100 100 99 92 97 100
24 24 25 26 26 25 24 22 21 21 21 17 14 11 9 8 9 9 8 7 7 8 8 13 29 52 71 78 86 91 88 93 92 91 98 100 100 100 100 100 99 99 94
28 26 25 24 24 23 23 22 22 19 15 12 10 8 8 8 7 7 8 8 10 15 34 54 59 63 67 69 69 64 60 55 53 53 53 54 57 63 67 73 76 74 67
24 25 28 26 25 25 24 19 17 13 10 8 8 8 7 7 9 12 18 32 43 51 51 51 52 48 46 41 33 28 23 19 17 15 14 15 17 17 21 30 40 44 41
32 31 30 29 25 21 18 15 10 10 10 10 10 8 9 16 30 42 56 54 53 53 51 42 34 30 26 25 24 22 19 17 15 12 10 9 9 9 9 11 13 15 17
33 30 27 23 21 18 12 12 12 11 12 11 11 18 38 54 62 66 67 61 52 41 41 39 40 40 31 28 26 24 21 15 11 9 8 8 7 8 8 7 7 8 10
30 26 24 23 20 14 15 14 14 14 12 16 34 53 65 77 85 84 78 70 67 59 54 53 45 34 29 24 21 18 14 10 7 5 4 4 4 5 5 5 6 7 9
27 28 27 23 17 17 16 16 15 13 20 36 55 72 85 98 96 89 84 72 60 49 42 36 30 25 21 18 15 13 9 6 6 5 5 4 5 5 5 6 6 8 9
30 28 26 20 20 19 18 16 14 19 40 61 78 92 96 93 88 72 57 47 41 32 26 22 19 16 13 11 10 9 9 10 10 8 7 6 5 5 6 7 9 11 13
32 30 24 23 21 19 17 14 16 41 63 73 83 90 88 78 63 48 35 26 22 20 17 13 9 9 9 11 13 14 15 12 10 9 10 6 5 5 7 11 12 20 23
34 30 26 23 20 17 15 20 42 60 73 83 87 76 61 42 27 22 21 19 14 11 10 11 11 12 15 22 21 16 11 9 9 10 10 6 6 7 9 12 27 35 39
32 28 23 21 17 14 24 39 57 71 77 75 60 34 22 20 19 16 12 11 13 17 23 31 33 33 28 18 14 10 8 14 12 12 10 6 8 8 10 27 41 41 76

GFSMW_500_rhum_003.txt.gz
RH
49 61 67 59 44 37 34 34 33 27 17 6 2 1 2 2 2 5 10 14 18 19 18 18 19 20 22 24 26 28 29 31 34 33 35 35 36 36 40 45 46 48 53
50 57 57 44 39 37 34 30 27 18 3 0 2 6 8 11 15 20 23 22 23 24 26 28 29 30 29 31 31 31 30 30 31 30 28 26 30 39 46 51 55 59 64
50 52 47 40 35 33 30 19 13 2 1 7 9 10 16 24 27 30 33 33 31 30 28 25 22 21 18 18 18 18 17 17 18 20 19 18 17 18 21 24 24 25 24
43 43 42 38 34 25 15 5 1 4 8 12 23 29 32 34 35 34 30 26 21 18 15 14 13 13 13 14 17 20 21 23 23 28 29 27 24 17 14 17 23 41 41
44 45 42 33 24 14 5 4 7 12 26 35 37 36 35 33 28 23 18 15 13 13 14 16 19 20 20 16 11 8 6 6 5 9 18 28 35 41 41 32 34 44 65
43 40 35 22 9 5 7 19 33 37 38 38 34 30 27 22 17 13 13 15 17 14 9 6 6 6 6 6 6 6 6 7 7 7 8 8 8 10 17 20 26 36 44
35 31 23 8 5 16 31 41 39 38 36 33 28 22 18 17 18 17 11 5 6 7 8 8 8 8 7 7 7 8 8 8 8 8 10 10 10 12 13 14 11 15 17
23 19 10 10 26 44 48 42 37 33 28 22 21 20 22 10 5 4 6 8 8 9 9 8 8 8 9 10 11 11 10 10 10 10 10 10 12 16 23 26 34 24 28
12 10 17 40 50 49 41 36 30 25 22 22 27 22 8 8 9 9 9 10 10 11 11 11 12 13 13 12 11 10 10 11 11 13 14 15 17 20 29 47 63 88 58
18 38 48 50 46 37 30 26 26 30 30 19 10 10 10 10 10 11 13 14 14 15 15 14 12 11 9 8 8 9 11 11 11 12 13 17 24 29 45 75 99 100 100
43 44 41 36 30 27 31 45 38 20 10 9 12 12 14 18 18 18 17 18 17 15 12 10 7 6 6 6 6 7 8 8 8 11 16 22 31 41 68 96 100 100 100
36 34 33 32 30 38 39 30 16 11 14 16 16 18 21 21 20 20 20 17 14 11 8 8 8 7 7 6 6 6 6 7 9 12 21 35 37 57 87 100 100 100 99
33 33 36 37 28 21 15 14 16 17 18 20 22 23 22 22 20 19 16 12 9 9 9 8 8 7 6 6 7 8 10 14 32 47 57 68 86 92 100 100 100 100 100
39 30 15 13 15 20 22 22 21 23 24 24 23 22 22 20 17 13 10 11 10 9 8 7 6 6 7 10 14 24 36 48 63 72 82 94 98 96 93 92 91 91 92
17 18 22 26 25 23 25 26 27 27 26 25 24 21 18 14 11 13 12 10 8 8 7 7 7 11 21 44 51 50 48 50 56 55 47 38 34 32 30 26 23 22 26
26 29 28 28 30 33 32 31 29 27 25 22 20 16 13 15 15 12 10 9 8 7 7 13 25 44 56 60 59 56 48 39 33 30 30 27 25 23 20 18 18 15 13
31 33 34 36 35 34 32 29 27 25 24 22 18 16 17 14 12 11 10 9 8 10 27 52 68 75 73 67 52 42 37 34 30 26 23 22 21 18 14 12 10 8 7
36 38 38 35 32 32 30 28 26 26 24 19 19 17 14 13 12 11 9 9 19 44 65 81 89 89 81 66 52 39 30 26 24 22 18 15 12 10 9 8 6 5 4
37 36 34 34 33 31 29 29 28 25 22 21 18 16 15 13 10 8 15 36 52 64 77 81 78 70 58 48 39 31 25 19 15 12 10 8 6 5 5 5 4 3 3
39 38 36 34 32 32 32 30 28 26 23 21 19 17 14 10 9 20 42 62 68 66 66 62 51 40 32 25 19 15 12 9 7 6 5 6 6 6 6 5 4 3 3
41 38 36 35 36 36 34 31 27 24 24 22 19 14 8 11 30 47 57 56 46 34 25 20 17 16 14 12 10 8 8 9 8 8 8 10 12 11 10 8 5 4 4
42 41 41 40 39 37 32 29 27 26 24 19 13 8 13 34 47 42 28 19 17 16 16 14 11 9 8 11 15 13 13 16 20 19 18 16 13 13 11 8 6 5 5
51 48 45 44 40 36 33 31 28 23 18 12 8 14 38 41 27 19 18 17 16 14 9 7 8 11 17 17 13 13 16 18 18 17 16 14 18 18 12 7 6 6 7
59 54 51 46 42 38 34 29 22 16 11 8 13 32 38 25 21 21 19 17 11 9 11 16 17 15 12 10 10 10 10 12 17 18 20 22 20 15 10 6 8 9 12
62 56 52 47 42 38 28 20 15 12 8 16 31 40 29 24 24 21 18 11 11 15 16 16 13 11 9 8 8 8 10 13 13 15 17 17 13 12 8 7 10 14 17
63 59 53 47 38 26 19 17 12 8 14 24 42 38 28 28 28 22 15 11 13 13 14 11 11 10 9 9 8 9 12 24 18 12 10 9 9 9 6 10 14 28 33

GFSMW_500_rhum_006.txt.gz
RH
44 23 11 37 65 68 56 39 34 35 35 31 25 13 2 1 4 6 9 16 23 24 25 28 32 33 34 32 29 24 21 19 17 14 14 14 16 17 18 19 20 20 21
9 30 42 54 64 55 44 38 37 35 32 22 11 1 6 8 11 16 25 29 33 36 36 34 30 23 19 15 14 13 14 15 17 13 12 11 11 11 16 26 31 37 38
18 36 46 54 54 46 41 37 35 29 14 4 3 9 12 20 28 32 36 39 37 33 27 21 17 16 16 16 14 11 8 7 6 6 6 6 5 5 5 5 6 8 12
38 40 47 50 45 38 38 35 24 11 4 8 10 23 32 37 42 43 40 35 28 21 19 18 15 9 7 6 7 8 8 8 8 8 9 9 9 9 8 8 8 8 9
44 46 44 42 41 36 33 23 7 4 8 21 33 36 43 46 43 36 27 20 18 14 7 5 6 7 8 8 9 9 10 9 9 9 10 12 12 12 11 10 9 9 9
32 31 33 36 36 33 21 6 5 11 24 31 37 41 41 36 28 23 21 12 8 8 9 10 10 11 11 11 12 12 13 14 13 13 11 9 7 7 7 7 6 6 6
21 24 25 30 30 21 10 7 20 29 37 44 46 39 29 23 25 23 13 10 10 12 12 14 15 16 16 16 16 16 15 12 10 8 8 8 8 7 7 6 6 6 6
19 20 24 24 19 12 11 23 39 47 50 46 35 25 27 23 12 10 10 10 11 13 16 18 19 19 19 18 15 12 10 9 9 9 9 8 7 7 7 7 8 7 8
15 16 15 13 14 24 38 48 49 46 35 26 28 29 15 10 10 13 15 15 16 18 20 21 21 19 16 14 12 12 12 11 10 8 8 7 6 6 6 9 13 20 13
14 14 16 24 44 48 46 44 35 28 28 31 28 14 14 17 18 17 16 19 20 21 21 19 18 17 16 15 13 12 10 9 9 8 7 6 6 7 11 18 32 46 64
16 24 42 50 44 40 35 33 33 31 26 16 18 20 18 16 17 19 19 20 21 20 20 19 17 15 14 12 11 10 8 7 6 6 6 9 16 28 43 57 70 76 86
45 53 45 37 35 34 37 34 20 17 23 22 21 20 23 24 24 23 23 22 22 20 16 16 15 13 11 10 8 7 5 5 5 10 28 43 51 54 56 62 67 70 71
50 40 39 37 40 36 18 20 26 24 23 23 22 25 24 25 24 24 24 23 20 18 17 15 12 11 9 7 5 4 4 11 33 60 73 72 70 67 65 55 43 37 34
44 41 45 39 22 21 26 25 24 23 23 24 27 27 26 25 26 26 24 22 19 17 15 12 11 8 6 4 3 11 30 56 79 94 95 92 89 78 66 55 49 45 45
49 44 23 20 26 27 25 26 25 27 29 30 28 28 28 28 27 25 22 19 18 15 13 11 8 5 4 13 24 34 48 62 73 79 76 72 63 56 50 43 36 31 26
23 20 24 27 28 28 31 33 35 34 33 30 31 32 30 28 25 22 20 18 15 14 11 8 5 8 22 28 33 34 32 37 40 42 44 43 45 43 36 29 23 22 19
21 27 31 34 36 37 39 38 36 35 35 35 34 31 29 27 25 22 18 16 14 11 7 7 16 19 17 15 14 14 14 14 14 13 12 11 11 11 11 12 11 9 7
29 35 39 40 42 42 41 40 39 39 39 36 34 32 30 27 23 20 17 15 11 7 10 16 18 17 14 12 12 10 6 5 5 7 9 10 9 9 8 8 6 6 6
39 44 46 46 45 45 45 46 46 44 41 39 36 33 30 26 22 19 15 10 8 13 20 21 19 15 12 9 6 6 7 11 12 14 11 10 12 18 22 19 16 13 12
47 49 52 53 54 53 53 53 51 48 44 40 36 33 28 24 21 16 10 8 16 24 24 22 19 14 10 7 10 13 11 10 8 8 9 10 11 16 20 20 18 14 12
49 52 53 57 56 56 57 58 55 49 44 39 36 32 27 22 16 11 9 18 31 28 29 25 17 13 8 10 12 11 10 9 8 8 9 11 11 11 10 12 15 15 13
50 52 55 54 54 55 61 62 54 48 43 40 34 30 22 17 11 10 20 40 35 34 33 24 16 10 9 8 10 9 9 9 9 8 12 12 12 12 16 17 16 14 10
49 51 52 52 56 69 68 59 52 47 42 38 32 25 20 14 11 23 43 43 40 39 32 21 16 10 10 9 8 9 9 9 9 11 25 26 12 12 14 13 12 9 7
53 54 56 66 79 70 62 54 50 45 41 36 28 23 18 13 22 44 51 46 44 39 27 20 11 12 12 10 9 9 8 9 8 12 32 36 27 10 7 9 9 6 10
56 64 78 81 72 65 58 53 48 44 40 32 26 20 14 21 38 50 53 50 46 36 25 17 11 15 13 10 9 9 9 8 8 10 23 33 32 10 9 10 6 10 16
73 81 81 75 68 62 54 51 47 42 35 28 21 15 19 34 44 46 54 52 45 33 24 13 16 18 12 10 10 9 10 10 9 9 21 36 24 9 9 7 10 17 42

GFSMW_500_rhum_009.txt.gz
RH
40 48 52 48 23 8 33 70 67 52 37 36 37 35 29 13 4 5 9 11 16 24 30 35 40 40 35 26 18 14 13 12 9 8 7 6 6 6 6 6 7 8 8
44 46 36 13 35 45 56 62 53 44 40 39 36 21 8 3 9 13 20 30 37 41 45 40 31 22 17 14 11 8 7 8 9 8 7 7 7 8 8 8 8 9 11
29 11 6 28 46 56 57 55 47 44 44 29 15 6 8 11 15 31 40 45 48 45 33 23 17 11 7 7 8 10 11 12 14 14 14 12 12 11 12 12 13 12 12
14 16 26 34 42 52 52 46 47 46 30 12 5 7 13 25 36 42 48 46 36 26 22 14 10 10 12 12 13 13 13 14 17 18 18 18 17 16 15 14 13 11 10
23 34 43 47 46 45 47 48 46 32 12 5 6 18 32 42 49 50 38 24 24 22 16 12 11 12 13 14 16 18 19 20 19 19 18 16 14 13 13 15 14 13 12
25 30 32 38 44 49 48 43 30 20 8 9 23 34 45 49 46 32 25 22 14 10 14 17 18 16 13 15 18 20 19 19 18 17 16 16 16 15 14 12 13 12 12
22 22 24 26 34 33 29 24 17 12 12 22 44 52 49 36 29 29 19 11 16 19 20 17 14 14 14 16 19 20 20 20 19 18 16 13 11 11 10 9 9 8 8
20 20 21 24 24 21 17 14 15 24 38 53 49 39 28 29 30 19 16 20 19 18 17 16 14 16 18 20 21 21 20 18 16 14 13 12 10 8 7 6 6 5 5
19 17 17 18 17 15 16 21 36 48 46 36 31 30 31 23 18 20 21 21 18 16 16 16 18 21 22 22 21 20 19 17 16 13 10 8 7 6 4 4 11 31 24
15 17 19 18 16 22 38 47 48 39 35 35 32 22 20 22 22 20 18 17 18 17 18 20 21 23 23 22 21 20 16 13 11 9 7 6 5 4 4 13 40 74 88
13 16 18 20 37 56 52 44 38 39 33 20 21 24 22 21 19 20 19 20 21 22 22 24 25 24 23 21 18 15 13 10 8 8 6 4 3 7 13 25 50 77 98
23 26 37 58 60 46 42 43 40 22 22 26 24 21 19 21 22 23 24 24 25 26 27 26 25 23 21 18 15 13 10 9 8 5 3 6 11 15 26 43 60 75 87
51 62 59 51 47 48 47 28 24 27 26 22 21 23 24 25 26 28 28 29 30 30 28 25 24 21 18 16 12 11 9 7 4 5 8 10 11 11 13 15 16 25 40
71 56 48 49 51 33 23 25 24 24 24 26 28 29 29 30 33 34 34 34 32 29 27 25 22 20 15 12 10 8 6 5 9 10 10 9 6 4 4 4 5 7 11
57 50 51 43 22 24 23 24 28 30 31 33 34 35 37 39 40 40 39 35 32 29 27 24 19 15 12 9 8 6 8 13 12 11 7 4 5 6 7 8 8 8 8
45 63 51 38 40 24 28 34 37 39 39 41 43 44 45 45 48 45 40 35 33 30 26 19 16 12 9 8 9 17 17 16 12 7 5 7 8 8 7 7 8 8 8
63 70 60 25 27 35 41 44 44 46 48 49 49 50 53 55 52 45 38 36 32 26 21 16 13 9 8 14 23 24 21 14 9 5 7 8 9 9 7 6 6 7 9
62 36 27 34 43 45 45 45 47 51 53 54 55 57 61 57 49 41 39 34 28 22 17 14 10 8 18 27 32 26 17 12 7 8 8 9 9 9 8 6 7 8 10
30 29 38 47 46 46 47 49 53 55 57 59 62 65 61 51 44 41 36 29 21 16 13 10 8 17 33 38 32 21 15 8 11 10 8 8 8 8 8 8 8 8 13
34 44 47 47 48 49 51 53 56 59 63 69 69 63 52 47 43 37 28 18 12 11 9 10 16 39 43 38 26 19 9 11 12 10 9 9 8 7 10 24 17 8 10
43 47 48 47 49 50 52 58 59 64 68 69 64 55 52 46 39 29 19 14 13 10 12 18 28 45 44 34 24 13 11 14 12 9 9 10 9 9 25 33 30 10 7
46 46 46 48 50 54 61 58 60 65 67 67 59 55 51 42 32 21 17 14 11 13 23 29 44 48 43 30 21 10 15 15 10 9 9 10 10 10 23 32 26 6 8
46 46 47 49 58 62 56 58 66 71 70 61 57 54 45 34 25 20 15 12 13 25 39 48 47 42 37 28 16 11 14 10 11 10 10 11 10 10 25 36 12 7 8
47 48 50 62 63 57 56 63 70 68 62 61 56 47 37 28 22 16 12 12 26 48 57 51 47 41 33 26 11 12 10 9 14 10 12 15 11 13 37 24 10 8 9
49 54 64 65 63 61 65 68 65 64 62 56 49 39 31 26 18 14 12 19 54 61 55 56 49 40 31 22 10 13 9 16 14 15 28 18 13 34 32 12 8 11 34
62 65 67 64 67 71 68 64 62 57 52 47 40 34 29 20 15 13 17 51 59 63 66 61 51 40 32 13 12 12 15 22 26 29 28 15 30 32 10 8 18 83 100

GFSMW_500_rhum_012.txt.gz
RH
50 49 47 42 40 51 54 24 13 42 68 63 46 39 39 38 21 9 7 10 13 23 33 39 42 43 38 27 19 11 8 9 10 11 11 11 11 14 15 18 18 17 17
42 46 43 40 39 45 25 35 56 63 61 52 44 45 38 18 10 9 10 13 25 37 42 43 38 28 22 17 13 11 12 14 14 12 12 12 16 17 18 18 18 18 17
43 44 44 46 38 12 27 50 61 67 61 52 49 34 16 10 9 15 30 39 44 46 39 29 24 22 17 12 14 17 15 12 11 11 11 11 14 15 16 16 17 17 17
50 47 33 9 6 18 32 44 57 60 58 48 33 19 12 11 20 33 40 49 47 36 28 25 18 11 14 19 17 14 12 10 10 11 15 17 16 16 15 16 17 17 17
52 52 25 21 31 37 41 45 57 56 51 33 19 14 13 25 36 53 52 42 33 31 27 14 12 19 19 17 14 14 14 15 16 17 18 19 20 20 19 16 17 17 17
53 55 27 27 36 39 46 55 55 47 31 19 16 18 32 50 54 45 34 32 35 26 16 20 21 17 16 17 18 17 18 19 20 20 21 21 21 20 18 17 15 14 12
51 29 20 25 33 43 48 45 35 25 20 18 21 44 52 46 37 34 39 34 23 21 21 18 18 20 20 20 19 20 21 22 23 23 22 21 19 17 14 13 11 10 9
20 18 20 21 26 31 29 25 22 19 21 25 44 46 37 36 38 30 22 23 22 18 20 22 23 22 22 22 22 24 24 24 23 21 20 17 15 13 11 10 8 6 5
20 21 20 19 18 19 19 18 19 22 33 52 42 39 40 27 21 25 23 20 19 23 24 25 25 25 25 26 27 27 25 23 21 19 16 14 12 9 7 7 6 5 4
19 14 14 17 19 18 19 21 29 48 48 41 42 32 22 26 25 21 20 24 25 26 27 28 30 31 31 31 29 26 23 20 18 16 13 10 8 7 5 4 4 6 8
25 15 13 13 14 20 28 47 55 45 44 38 26 26 28 24 22 25 27 28 30 31 33 34 34 35 36 32 28 24 21 18 16 12 9 8 8 6 4 4 6 7 8
12 12 17 23 30 48 57 51 49 44 33 25 25 25 24 26 28 28 30 33 34 35 36 40 40 39 34 30 25 22 19 15 10 8 8 7 6 5 7 8 8 6 4
9 20 33 45 67 59 50 51 36 27 24 25 27 26 29 30 30 33 37 38 38 42 44 45 43 37 32 27 22 17 12 9 8 7 7 6 7 10 11 10 5 4 6
30 48 63 71 57 50 51 30 25 31 31 28 29 32 33 34 39 41 41 43 46 50 53 48 40 35 28 19 14 12 10 8 7 7 7 8 16 15 10 5 6 7 8
52 71 71 58 51 60 38 51 48 30 31 34 36 38 41 44 44 45 47 49 54 58 54 44 37 29 18 15 14 12 9 8 8 7 10 24 19 11 6 8 9 8 8
71 77 59 51 68 70 60 40 29 36 40 42 43 46 48 49 49 51 53 60 66 58 47 39 32 20 19 16 12 10 9 8 7 15 26 23 14 7 8 10 9 9 8
67 55 59 67 68 56 33 32 39 44 45 46 47 50 52 52 52 57 65 70 61 50 42 34 24 20 14 12 10 10 10 10 22 29 26 19 9 9 10 8 9 9 8
60 69 74 73 41 31 36 44 46 47 48 49 51 54 56 56 63 72 73 63 53 46 36 27 20 15 13 11 11 12 14 24 31 30 24 12 8 9 9 8 8 9 8
75 80 78 49 35 37 44 48 48 47 50 51 58 58 58 69 77 76 63 55 48 39 30 24 19 15 12 12 15 18 24 31 34 28 17 10 9 11 11 9 9 8 8
90 88 72 40 38 46 51 51 48 49 52 62 61 61 72 78 73 61 55 49 38 32 28 23 18 14 12 15 20 27 33 36 32 25 10 10 12 15 11 10 9 8 8
82 65 36 40 48 52 52 48 49 52 63 67 65 72 75 68 58 53 43 34 26 20 18 19 16 13 14 21 30 40 43 38 30 17 9 12 21 18 25 21 14 10 21
40 36 44 48 52 50 50 50 56 65 67 69 74 72 64 57 47 38 30 19 16 17 18 18 15 15 21 33 43 48 42 36 26 9 12 20 25 29 30 16 13 27 21
44 48 49 50 48 50 52 60 68 68 72 74 68 61 52 42 36 31 26 22 20 21 18 16 16 23 33 46 50 42 37 33 13 9 19 21 25 28 21 20 32 15 10
50 48 47 45 47 58 64 67 67 73 70 62 52 41 38 38 36 31 21 21 23 20 18 16 21 34 46 50 44 38 34 22 7 14 23 26 26 22 30 33 12 22 66
46 45 44 55 63 63 63 69 70 61 51 41 38 38 38 32 25 21 22 23 21 18 17 26 40 44 48 44 41 36 27 9 10 23 25 25 26 33 31 11 39 89 90
43 56 64 61 63 66 68 60 49 41 39 38 34 30 24 21 19 20 23 21 17 16 37 49 51 50 44 42 39 29 12 9 16 26 25 24 30 22 10 53 92 90 100

GFSMW_500_rhum_015.txt.gz
RH
42 54 54 62 56 50 44 38 42 51 49 16 39 65 60 43 43 42 26 11 8 12 21 36 40 41 39 33 28 22 20 14 12 14 15 14 12 12 11 11 13 14 15
37 47 50 53 48 46 45 41 42 41 21 44 54 60 53 48 44 30 12 8 12 26 35 42 45 38 31 26 24 16 12 14 19 18 14 13 14 14 15 14 15 17 18
34 36 40 40 46 45 44 44 34 15 62 85 76 67 58 50 33 16 10 16 36 50 51 44 36 33 31 23 13 15 19 17 15 16 15 14 12 11 13 14 15 17 18
30 31 39 44 45 41 27 8 8 16 42 48 61 58 49 35 21 14 15 38 53 49 40 35 39 36 20 17 18 17 17 18 18 17 17 17 15 13 10 14 18 19 18
35 43 44 50 49 39 18 25 24 29 39 54 53 48 32 21 18 22 47 51 47 38 40 43 33 23 20 18 22 23 23 20 18 18 18 18 20 24 21 17 18 16 15
39 45 49 50 54 41 25 34 38 45 52 51 43 30 22 20 31 47 46 39 36 36 29 24 21 19 21 24 24 24 23 24 25 25 25 25 24 23 20 18 16 13 12
38 48 45 44 53 28 26 36 43 47 44 34 26 21 21 30 43 41 39 37 28 24 24 20 21 25 26 27 26 27 27 28 28 30 30 28 25 22 19 16 14 12 10
20 27 35 42 31 19 23 26 30 31 28 23 21 21 39 46 42 39 30 24 26 23 22 26 27 28 29 30 30 30 30 30 34 33 30 26 22 19 17 14 12 10 9
19 17 19 20 18 19 20 21 21 21 21 22 27 46 45 43 38 26 28 27 24 27 28 29 30 31 32 34 33 33 36 39 38 34 28 23 20 17 16 13 10 8 7
30 20 17 16 15 15 15 17 19 18 22 39 53 45 43 31 28 28 26 26 29 30 31 34 36 37 38 37 36 41 45 41 36 30 24 21 19 16 12 10 8 7 6
40 38 34 29 22 18 14 15 20 32 50 52 46 41 29 27 27 29 29 31 33 35 38 39 40 41 40 42 49 51 46 39 31 26 23 19 14 12 10 8 7 7 8
36 33 30 24 15 11 16 23 42 56 51 48 34 26 28 30 30 31 33 35 39 41 42 43 42 44 51 55 54 49 41 32 26 21 16 14 12 10 9 8 8 11 16
30 26 18 11 11 19 35 56 58 52 46 28 29 40 40 31 35 36 38 42 45 46 46 45 48 56 60 59 51 41 32 26 21 17 12 10 10 10 10 10 15 18 15
27 15 12 21 31 45 64 62 55 54 41 49 50 38 32 38 39 42 45 48 50 49 47 51 60 62 61 52 40 30 22 12 9 10 11 11 12 12 12 20 22 19 16
21 12 18 34 50 68 67 56 64 64 61 46 32 36 42 42 44 48 51 52 52 48 53 61 65 61 50 33 17 13 12 13 13 12 12 13 13 16 29 26 22 18 8
12 20 35 50 64 72 56 64 69 56 47 32 42 43 43 45 51 53 53 56 53 57 66 67 59 45 25 14 14 15 16 15 14 13 13 14 23 35 29 25 21 8 9
14 28 42 63 62 61 71 72 67 44 35 42 46 46 46 53 55 55 60 58 64 69 63 56 40 25 15 16 17 16 15 15 14 13 15 27 38 30 28 24 9 10 14
25 46 60 60 63 72 77 72 62 42 44 47 48 48 56 56 60 61 62 68 66 59 50 38 28 23 20 18 15 15 16 15 14 20 36 41 34 31 26 10 10 16 21
47 61 64 71 76 86 93 86 43 46 48 49 51 57 54 62 62 68 68 59 50 43 38 33 26 20 15 15 16 16 14 14 24 39 42 37 33 29 10 11 18 18 24
71 75 77 79 91 94 72 40 48 50 51 51 55 56 64 68 70 58 45 39 41 34 25 19 15 13 14 16 15 13 14 22 32 39 38 36 30 10 11 23 22 20 22
84 92 91 84 87 48 43 51 51 50 52 52 60 65 69 61 47 38 38 29 19 18 16 14 13 14 14 14 12 18 30 37 38 35 32 29 12 8 24 25 25 27 30
92 66 68 54 39 49 52 51 50 53 57 63 67 66 51 40 36 25 17 16 16 15 15 14 13 12 11 12 20 34 39 41 38 34 27 13 7 22 25 24 27 28 13
71 67 40 47 56 58 50 50 59 64 65 70 56 44 38 28 16 14 14 17 17 16 15 13 10 9 11 22 38 41 39 38 35 26 12 7 17 26 24 25 19 10 36
39 46 63 67 51 50 61 69 70 67 64 50 40 34 19 15 15 18 19 18 16 15 14 10 7 14 27 39 41 38 36 31 21 9 7 16 24 26 25 16 11 54 94
76 71 55 50 61 71 74 66 65 52 44 39 29 18 16 17 19 21 21 18 16 13 8 10 19 30 37 40 39 36 29 16 7 7 16 22 24 27 15 11 60 96 97
71 59 58 71 74 67 67 54 45 41 37 24 20 17 18 20 18 20 19 18 14 7 9 22 37 40 39 38 36 26 11 9 11 18 20 22 26 15 11 63 100 98 99

GFSMW_500_rhum_018.txt.gz
RH
20 30 29 28 48 59 60 61 58 50 43 38 37 38 23 41 62 60 50 50 47 26 12 8 16 32 46 48 41 34 30 26 22 17 16 17 17 16 16 16 16 16 16
28 27 31 34 48 52 60 56 49 47 44 39 41 50 41 51 69 62 58 51 35 20 11 14 31 43 44 36 35 35 29 22 18 18 19 19 20 20 19 18 17 18 18
33 22 30 37 44 47 52 48 47 46 42 40 20 13 45 58 61 58 52 36 22 16 15 25 42 41 37 38 31 24 22 19 22 24 21 19 18 18 19 20 21 21 22
25 25 33 35 37 38 39 46 45 43 21 7 11 30 40 55 55 53 38 24 17 19 33 41 39 37 30 24 22 20 22 24 25 25 24 23 22 21 18 20 22 23 22
36 25 29 34 31 38 44 47 49 25 17 25 36 40 49 50 46 34 24 16 22 35 38 39 31 26 25 22 23 26 26 26 26 27 27 28 29 29 25 18 21 23 23
38 34 27 34 40 46 50 50 47 29 29 36 40 43 43 36 28 22 18 24 40 42 36 28 27 26 24 27 28 29 30 31 31 31 31 30 30 30 28 25 23 20 20
38 33 26 37 46 50 47 42 40 30 27 30 33 32 28 25 20 19 34 45 43 33 29 30 27 27 30 31 33 34 33 34 35 35 34 33 34 33 32 29 25 23 22
37 31 16 26 37 41 39 36 31 22 23 22 24 21 20 20 19 46 47 41 30 30 29 28 32 32 33 35 35 36 37 38 38 36 35 36 40 39 36 33 28 24 21
46 45 23 16 17 20 22 21 20 21 21 19 19 19 17 28 52 49 39 30 30 30 33 34 34 36 37 38 40 41 41 39 36 39 43 43 41 38 33 23 16 15 16
48 49 35 26 19 18 18 18 17 16 16 16 16 21 43 52 49 35 28 30 33 35 35 36 39 42 45 45 44 42 39 38 44 47 43 41 38 26 15 15 13 9 9
54 49 43 37 33 30 29 28 26 20 14 18 29 51 53 48 30 29 37 36 35 37 39 43 47 49 48 48 46 43 45 49 48 46 41 30 16 16 14 11 10 9 10
38 36 35 37 39 36 30 23 16 13 20 35 58 54 49 31 40 46 34 38 39 41 46 52 52 51 52 50 49 51 52 48 42 31 18 15 14 13 11 9 9 10 11
32 31 32 31 30 26 19 10 13 29 52 65 58 57 48 57 41 31 38 42 44 51 57 55 54 51 53 55 55 48 38 28 22 17 14 13 11 9 9 10 10 11 13
40 37 36 31 26 17 13 22 40 63 68 61 63 70 61 42 33 41 43 46 56 60 58 55 53 58 57 45 33 27 23 18 14 11 10 10 9 10 10 10 11 12 17
39 40 47 37 22 12 18 36 59 74 63 64 70 58 46 39 41 45 48 58 61 60 56 58 60 43 33 28 19 12 10 9 9 10 10 10 9 10 10 14 18 25 27
43 46 45 26 16 16 34 58 73 63 68 76 64 65 51 43 47 48 58 63 62 59 63 50 34 25 13 10 9 9 8 9 10 10 10 8 7 11 19 24 30 29 26
62 44 24 18 17 35 57 66 63 78 90 77 92 48 46 50 50 57 64 64 62 64 42 28 13 10 10 10 10 10 10 10 11 8 5 6 14 24 27 28 26 23 16
41 16 12 19 36 56 62 67 83 96 96 85 42 47 51 51 57 64 65 65 58 37 21 12 11 11 11 12 12 12 12 9 5 4 9 18 25 30 30 24 20 13 7
20 12 23 39 60 67 72 80 93 96 60 42 52 52 51 59 67 67 69 49 34 17 13 12 12 11 12 14 14 13 8 4 4 12 24 30 30 28 25 18 10 6 21
28 42 66 85 99 98 95 82 83 54 44 54 53 52 65 74 68 68 45 32 17 15 13 12 12 13 15 16 12 6 3 4 10 22 31 30 28 23 14 7 7 20 24
51 82 93 92 96 89 76 84 45 49 58 51 56 74 78 67 60 43 32 18 14 11 12 14 17 18 16 11 5 4 10 21 26 29 27 25 16 9 8 12 23 25 21
83 73 57 60 74 90 58 46 58 58 51 68 79 71 65 49 40 29 20 13 12 14 16 21 20 18 12 5 5 15 27 33 31 28 20 10 9 10 17 23 25 18 18
82 69 74 73 48 44 58 65 52 58 79 77 67 58 42 36 25 20 13 14 16 19 24 24 22 15 6 6 18 28 31 31 24 13 10 11 15 19 23 26 15 38 83
77 48 40 50 69 80 68 58 65 82 71 65 49 40 33 25 16 14 14 17 22 26 28 26 19 8 6 16 28 30 24 12 8 10 14 18 20 22 24 14 41 84 88
49 58 76 85 76 62 49 58 77 67 61 46 38 30 23 15 13 15 18 24 30 34 30 21 11 6 15 26 28 17 9 10 15 17 20 22 22 25 14 54 93 96 100
82 80 72 60 45 50 75 72 67 54 44 36 28 20 14 14 15 19 27 38 42 36 24 10 8 18 29 32 14 10 14 20 20 22 24 28 24 12 69 100 100 100 100

GFSMW_500_rhum_021.txt.gz
RH
27 34 20 18 29 31 45 59 60 67 67 62 55 50 44 40 40 56 44 66 65 60 53 48 35 20 12 15 34 44 39 37 36 34 29 25 20 20 22 22 21 21 21
23 33 24 21 30 31 32 40 60 61 60 54 48 47 44 34 13 33 64 61 57 53 51 33 22 12 16 31 39 38 34 30 27 24 22 22 24 24 25 26 26 27 28
27 26 31 25 27 33 36 48 56 59 59 49 49 44 18 8 22 36 43 55 55 45 29 21 14 19 33 40 38 32 27 24 22 21 23 24 27 28 28 28 29 27 26
31 28 28 35 23 29 36 44 48 52 45 47 44 20 17 26 37 42 49 49 37 28 20 16 24 37 40 32 28 28 24 24 28 30 30 30 29 24 22 25 27 27 27
28 36 35 25 25 33 35 35 37 40 45 45 42 27 30 36 40 43 43 34 26 19 19 31 43 40 31 30 29 27 28 30 31 32 33 33 33 31 26 20 23 26 30
28 35 38 34 26 27 34 34 40 45 50 51 50 39 31 33 35 30 26 22 19 22 38 45 38 32 32 31 32 35 34 35 35 35 35 33 32 33 32 29 27 25 26
30 30 35 40 34 24 35 39 43 48 46 46 46 30 23 24 23 21 20 20 28 48 48 36 33 33 33 35 36 35 38 39 40 40 39 39 39 37 36 34 30 26 27
27 28 29 38 34 20 31 37 40 44 41 37 28 20 21 20 18 19 19 37 53 48 35 32 33 37 38 37 38 40 42 42 43 41 41 41 45 46 45 39 33 26 20
28 33 32 41 30 15 16 22 26 25 22 21 21 18 16 18 17 24 47 55 48 32 32 37 39 39 38 39 43 45 46 43 41 42 46 50 45 34 22 15 12 9 6
29 32 41 53 45 25 18 18 18 18 18 19 23 23 16 20 35 54 58 48 32 37 42 39 40 40 43 49 48 47 43 42 49 51 43 29 17 11 9 8 7 6 6
32 39 47 52 49 44 37 30 30 31 32 29 23 18 21 43 60 60 51 35 45 41 37 41 43 48 54 53 48 44 46 52 40 26 17 10 9 8 7 6 6 6 7
46 52 52 51 46 40 38 38 37 32 25 19 16 26 49 69 62 64 58 56 39 40 44 45 51 58 57 50 47 51 46 32 19 11 11 10 7 6 6 6 6 6 6
43 42 38 36 34 37 36 31 27 20 15 17 29 48 73 65 65 80 52 45 48 47 49 57 61 60 53 53 53 39 28 12 13 13 8 6 6 6 6 6 5 4 3
40 37 37 36 36 37 37 34 28 21 17 26 50 76 71 74 73 48 57 73 47 53 61 64 64 56 58 46 32 16 13 13 11 7 7 6 8 7 6 4 3 3 7
47 44 41 40 40 44 48 28 17 17 26 57 83 68 79 90 70 86 57 50 70 60 69 67 60 58 41 24 14 13 14 12 8 8 8 10 8 5 3 4 7 16 21
52 50 48 48 49 48 32 19 26 39 66 79 65 82 96 98 94 47 59 78 56 74 68 65 54 38 19 13 12 12 10 9 10 10 12 10 5 4 7 15 24 27 27
55 56 58 55 49 23 22 38 50 70 71 67 79 90 97 69 50 79 60 60 76 68 66 47 36 20 12 13 12 11 11 12 13 14 12 6 5 11 18 22 24 24 20
55 56 56 49 19 15 29 47 64 70 73 86 96 94 64 55 61 57 70 76 67 58 41 32 22 15 11 12 13 14 13 16 19 14 6 6 13 20 22 20 16 8 8
58 61 60 26 20 38 62 77 94 99 98 81 88 64 58 61 57 80 73 67 47 38 28 21 13 12 14 16 16 17 20 23 16 5 9 18 19 16 10 8 7 8 15
75 75 58 36 44 74 96 98 97 100 95 93 60 56 60 62 88 72 64 42 35 27 14 11 13 16 17 18 21 28 29 17 6 10 19 15 7 7 9 10 13 18 23
74 58 45 59 88 78 72 73 82 93 67 51 61 63 84 85 71 56 42 34 24 13 12 15 18 18 23 29 33 34 18 8 14 17 9 8 10 13 16 18 19 21 18
49 73 82 82 87 79 85 86 59 48 59 87 76 74 78 71 52 41 32 20 13 14 16 18 20 25 33 40 37 19 9 20 19 8 10 14 18 19 19 19 20 24 88
77 75 76 86 88 83 52 43 66 90 82 54 74 75 69 49 40 28 18 14 16 18 20 20 21 29 36 38 22 9 18 16 7 11 17 20 23 21 22 18 49 94 99
87 85 80 76 58 50 67 83 79 55 61 77 70 64 49 38 27 18 15 19 21 22 22 23 29 34 36 22 9 15 13 6 9 16 20 24 28 23 18 76 93 98 97
80 75 74 79 84 84 76 53 54 75 70 69 60 48 37 27 18 18 22 23 25 25 27 33 39 36 20 10 15 12 7 8 15 18 23 25 18 21 93 100 100 100 100
31 46 64 72 61 43 48 74 68 66 70 60 48 38 27 19 22 23 26 31 30 37 44 49 38 18 9 17 12 7 8 15 18 21 23 15 54 100 100 100 100 100 100

GFSMW_500_rhum_024.txt.gz
RH
37 34 23 28 32 19 21 32 34 54 60 67 74 71 64 58 48 47 39 17 37 63 62 54 51 48 39 26 20 12 14 20 33 38 35 32 30 24 23 23 24 25 27
37 38 28 25 36 22 17 27 33 46 60 65 67 66 59 50 49 34 10 25 38 41 45 46 43 35 28 22 18 16 24 33 40 36 31 27 26 25 28 30 32 32 32
38 38 33 26 32 22 20 27 34 35 39 62 64 65 53 49 38 16 26 35 39 43 46 43 33 26 20 18 22 33 42 36 32 30 28 26 29 33 34 34 34 34 34
38 38 36 28 27 33 30 26 32 40 51 58 59 54 48 46 32 27 32 36 39 40 34 27 23 18 19 24 38 42 35 31 28 28 32 41 45 39 33 33 35 36 36
42 40 41 30 27 32 36 24 23 34 44 50 52 44 46 48 48 40 32 31 30 26 24 20 18 22 36 48 40 33 30 28 34 39 39 35 33 33 33 31 31 34 38
46 38 38 28 28 34 31 24 28 35 36 38 39 44 48 46 48 37 26 23 23 20 19 16 27 47 49 39 32 31 36 40 41 38 35 36 38 38 36 32 28 26 28
46 37 42 32 35 37 38 32 22 32 37 38 41 46 42 41 37 25 23 21 19 18 19 35 51 51 38 32 36 40 44 39 38 39 44 43 40 35 34 32 30 27 25
44 46 43 33 30 34 43 36 19 30 37 38 42 40 35 28 22 20 20 21 17 24 41 55 52 37 34 43 46 44 40 42 47 50 46 40 39 43 40 32 26 22 17
46 45 41 32 29 34 43 30 16 21 30 30 25 24 21 20 21 27 22 19 31 51 60 54 38 40 53 44 46 44 46 56 56 48 43 45 44 34 23 15 13 12 8
42 41 35 31 35 47 46 28 18 16 17 19 19 19 23 30 28 22 18 42 62 65 64 53 58 56 49 55 49 55 63 59 49 48 46 35 24 17 15 14 10 8 8
40 40 38 40 47 57 46 34 32 32 32 30 32 35 32 25 18 23 54 71 64 66 71 71 58 59 63 50 65 66 60 48 50 40 25 19 18 16 13 9 8 8 7
39 41 41 46 59 58 53 50 46 40 38 38 32 26 18 17 36 64 80 76 67 71 68 61 72 60 57 70 65 58 50 46 34 24 22 19 14 10 9 7 7 7 7
48 44 49 60 59 55 47 42 41 37 33 29 25 23 25 38 57 80 81 69 74 80 77 80 51 72 65 68 55 51 39 31 25 20 13 10 9 8 8 8 8 8 8
50 50 51 50 45 42 40 39 40 41 40 34 25 24 30 51 78 74 64 77 91 97 57 66 77 67 69 56 43 34 27 20 12 11 10 8 9 9 9 9 11 8 4
55 52 47 44 44 46 48 51 50 44 38 30 24 30 51 70 65 66 84 98 92 58 83 74 75 69 56 38 31 18 10 11 11 10 10 10 10 10 15 13 6 6 12
65 60 55 52 51 50 49 52 45 35 25 22 35 49 66 67 77 96 100 84 72 82 74 80 68 52 38 28 13 11 12 12 11 10 11 12 15 18 10 6 10 14 8
74 70 62 58 56 58 56 47 34 21 21 32 57 72 81 97 98 95 90 84 68 73 85 69 48 38 25 14 12 13 13 12 12 13 14 17 16 7 7 10 8 7 11
73 64 58 59 60 57 45 25 18 26 45 71 87 97 100 97 94 87 63 65 84 82 69 46 37 23 14 13 14 14 13 14 15 16 21 14 7 8 10 6 7 12 16
65 64 62 62 66 53 36 31 43 68 88 96 93 94 95 90 60 61 84 84 81 67 46 34 23 16 15 15 15 16 16 16 18 22 11 7 9 7 6 10 14 18 20
56 57 62 80 74 63 50 53 81 90 81 78 90 98 76 56 81 74 72 81 62 46 33 22 16 16 15 18 18 16 15 18 19 12 8 10 6 8 14 18 19 18 19
65 75 80 72 58 51 66 90 87 77 88 97 73 52 80 86 60 77 77 57 45 32 20 18 17 19 20 18 16 20 26 21 11 8 8 6 9 16 20 24 21 22 72
76 66 51 56 77 86 86 91 96 95 75 48 69 90 68 64 79 74 56 43 31 20 20 19 21 19 16 17 21 24 20 10 10 8 6 9 16 19 21 18 31 96 98
79 82 81 80 78 83 90 93 74 52 70 83 75 58 73 76 71 56 42 30 22 21 20 18 16 16 17 19 21 18 9 10 8 7 10 16 19 19 16 62 93 95 100
87 83 90 93 89 77 69 70 80 85 76 53 68 73 78 71 57 41 28 23 22 21 20 19 19 18 20 21 16 9 9 7 7 8 16 20 18 23 81 91 93 96 95
91 86 72 53 41 42 58 70 61 45 67 71 71 82 72 55 39 27 25 25 23 23 22 22 21 20 21 15 8 9 8 7 8 15 20 19 36 94 96 92 92 96 96
17 20 26 39 56 66 58 44 70 75 62 79 82 70 50 36 29 28 29 28 27 26 24 22 25 23 14 9 9 8 8 9 14 18 20 53 92 92 96 99 100 98 98

GFSMW_500_rhum_027.txt.gz
RH
29 51 46 39 34 26 32 18 19 31 38 56 72 69 76 80 73 63 54 49 47 20 25 38 41 42 43 43 39 34 29 24 21 20 26 33 40 40 36 31 28 27 30
18 41 49 41 38 27 32 35 22 20 32 36 58 65 70 72 68 60 51 47 25 17 29 38 40 41 39 34 29 24 20 17 19 32 43 39 34 31 29 32 36 42 42
15 21 49 48 39 28 31 38 28 16 24 35 46 64 68 67 65 58 50 42 25 29 36 37 34 31 26 24 21 17 15 25 44 46 40 36 34 38 42 45 41 39 39
14 20 40 45 36 30 28 35 29 26 26 34 38 40 55 63 60 51 48 45 42 41 38 32 28 24 22 22 15 13 35 49 45 38 33 39 53 56 49 42 43 45 45
12 21 46 50 40 33 30 31 40 44 30 28 38 48 55 56 53 46 47 47 49 43 32 26 23 22 23 14 14 40 54 44 36 39 52 57 58 47 46 45 48 48 44
13 23 40 51 38 34 34 35 43 39 23 22 27 35 43 44 42 45 46 43 40 30 25 22 25 22 14 24 48 55 42 36 46 61 59 56 54 49 54 50 44 36 33
16 22 38 53 44 39 40 46 49 42 26 23 30 37 38 39 41 44 40 36 27 22 22 27 22 19 31 54 57 44 43 61 64 56 61 57 54 60 55 44 36 31 27
17 20 40 57 50 41 41 52 52 49 36 19 25 36 36 36 41 36 30 24 22 27 29 23 22 35 58 65 60 66 67 60 61 71 56 62 62 52 43 36 29 23 17
18 17 39 62 51 42 41 46 48 50 38 16 19 28 30 28 24 25 23 24 31 26 22 24 42 60 66 70 71 66 63 71 66 58 65 62 48 38 30 25 19 15 14
19 17 43 62 48 42 39 40 49 49 36 16 15 18 20 21 22 26 33 31 25 20 29 52 67 67 68 70 69 75 75 58 68 68 60 45 32 26 17 12 10 10 8
26 29 56 51 44 41 39 44 55 45 30 22 21 24 26 31 36 34 27 20 24 35 54 70 63 66 80 87 87 63 69 71 72 57 40 30 18 11 11 10 8 8 10
43 56 54 50 46 42 46 59 55 34 35 42 38 37 38 37 30 23 22 30 38 59 67 59 69 87 96 71 66 76 73 74 55 38 29 14 11 12 9 9 11 10 9
60 52 49 46 47 52 62 57 53 52 47 42 42 39 34 33 30 23 27 43 58 59 62 81 91 92 65 78 76 77 73 52 38 26 14 13 12 10 12 11 10 9 8
63 62 58 57 57 63 65 61 53 47 44 40 40 45 41 33 28 29 43 55 61 72 88 94 95 80 73 76 83 69 50 38 25 14 16 12 13 12 11 10 9 8 7
70 75 78 72 66 62 56 50 45 45 51 53 48 42 35 22 31 38 58 71 87 94 94 92 71 63 84 85 68 49 38 24 16 17 15 13 12 12 11 10 9 6 6
81 75 68 60 56 53 54 54 52 53 51 49 43 30 24 30 44 71 90 96 98 98 83 60 79 86 84 68 48 34 19 19 17 14 14 14 14 12 11 8 6 7 6
73 69 66 61 59 58 56 53 52 52 51 40 22 24 37 62 86 98 95 100 98 61 69 82 71 82 64 46 28 20 19 16 16 17 16 15 13 12 7 6 6 6 14
80 75 73 70 64 57 56 56 57 50 32 25 33 56 80 97 89 90 100 91 65 88 68 69 82 61 41 24 22 19 18 19 19 18 16 14 12 6 6 6 6 14 21
97 91 78 65 60 60 62 62 56 40 41 53 78 99 95 83 94 99 66 81 91 61 77 76 57 36 24 22 20 20 21 19 14 15 15 11 5 6 6 6 13 18 18
77 70 66 64 64 67 74 71 63 55 67 97 100 89 94 100 77 60 90 74 63 80 73 51 32 26 24 23 24 22 13 12 14 16 10 6 6 6 7 14 16 17 52
56 55 59 65 75 84 76 58 62 91 97 93 96 100 80 58 82 83 62 71 79 70 47 29 28 27 27 25 12 12 16 16 15 9 6 7 7 8 15 17 23 76 87
65 74 80 82 68 56 73 91 91 90 94 98 85 65 84 88 63 65 76 81 66 42 30 29 30 30 24 12 13 19 19 16 8 6 7 7 10 15 16 33 86 91 94
79 74 69 78 86 87 85 88 93 89 76 77 86 86 58 63 74 78 81 58 39 31 30 31 29 17 11 14 17 19 16 8 7 8 8 12 15 17 42 84 93 91 95
94 96 94 90 91 94 90 81 72 62 69 71 53 62 77 70 83 73 50 38 31 32 35 31 20 14 15 17 17 17 8 6 8 8 11 16 16 54 81 83 88 88 92
97 95 86 56 37 35 34 45 64 68 53 62 82 64 73 78 63 49 38 33 37 36 30 21 16 16 16 16 16 10 7 8 9 9 15 17 55 89 90 86 82 85 66
40 22 23 26 29 43 64 76 62 59 88 68 62 77 73 58 50 41 39 38 35 27 22 20 19 18 18 18 11 8 9 11 9 14 18 57 86 87 90 90 77 39 30

GFSMW_500_rhum_030.txt.gz
RH
15 17 15 20 51 48 43 39 29 34 17 25 46 62 83 80 75 83 88 80 68 56 50 47 20 23 34 40 40 40 34 29 25 21 18 14 22 39 43 41 38 35 35
18 17 13 17 42 53 44 41 30 39 31 19 33 39 49 74 72 76 76 74 65 52 49 39 26 30 37 38 36 30 27 24 23 18 11 30 45 45 39 36 37 44 54
16 17 14 16 25 54 50 42 30 33 45 27 21 29 37 48 64 70 71 67 62 52 52 48 39 40 40 34 28 23 24 24 16 12 24 38 44 42 40 48 55 56 52
19 17 15 16 19 55 51 40 35 28 41 30 18 26 35 40 55 65 62 64 59 51 51 47 44 44 37 27 22 27 24 16 16 28 47 50 49 52 48 56 54 57 58
25 22 16 18 20 38 53 41 39 28 40 33 27 27 32 39 43 50 60 57 53 48 49 42 40 37 28 23 29 23 17 23 37 51 53 54 62 60 52 45 64 61 61
25 24 20 15 19 36 54 45 40 29 32 39 40 31 24 31 40 48 50 47 43 46 45 37 35 28 25 31 23 20 35 52 58 62 65 67 65 64 66 57 54 50 51
24 21 21 17 20 46 58 46 42 33 34 38 40 28 25 36 37 36 37 40 43 45 36 32 28 28 32 24 23 40 57 62 66 70 68 68 74 70 64 61 54 46 42
24 24 23 18 23 35 57 50 48 39 39 47 43 29 21 22 32 38 38 39 40 32 30 28 33 32 23 26 46 62 65 67 74 78 83 78 67 67 64 60 51 43 36
26 24 26 19 22 41 59 53 52 41 48 56 52 40 22 21 25 30 31 30 26 28 31 36 29 24 31 44 60 61 63 76 81 80 68 70 71 72 62 50 39 32 27
26 27 26 24 32 59 62 54 52 43 47 50 52 47 27 15 15 18 21 25 32 38 36 26 29 32 44 54 56 67 81 85 75 72 76 78 72 59 46 38 26 15 14
28 33 26 28 38 69 60 55 52 46 45 45 52 44 26 20 21 26 33 38 39 34 30 30 31 45 51 56 74 83 89 83 72 77 80 70 59 44 34 20 15 15 16
26 32 26 29 49 70 57 49 52 48 46 52 53 36 24 32 38 39 41 37 35 36 29 36 48 54 68 84 87 88 71 67 80 81 72 55 41 22 18 17 18 18 17
48 33 26 24 47 62 57 52 52 49 51 68 40 35 44 43 43 39 40 43 35 31 40 53 71 89 96 95 84 64 77 77 79 70 51 29 20 19 20 20 18 13 8
52 39 46 53 65 58 52 53 49 56 67 48 50 48 45 42 44 50 43 31 36 42 71 87 95 96 93 65 74 78 70 80 64 38 23 21 22 18 12 8 6 6 6
68 62 72 68 63 54 51 53 68 61 59 55 49 44 47 56 53 40 28 36 57 84 95 94 93 77 69 86 71 71 78 58 34 23 24 12 8 7 7 6 6 6 4
86 89 91 72 62 57 65 73 68 61 51 46 51 56 60 53 32 25 37 75 96 95 89 94 68 82 88 66 75 76 55 32 24 28 10 10 10 8 7 6 5 4 5
87 93 100 84 75 78 73 61 53 52 54 57 63 60 46 26 30 53 88 100 89 90 91 62 87 84 66 78 70 49 29 28 26 11 11 11 11 10 8 5 5 6 6
85 93 85 75 69 63 63 65 65 63 61 62 52 36 32 45 71 98 99 92 96 76 68 87 70 69 79 68 42 29 31 27 15 13 13 13 12 11 5 4 6 7 14
84 77 73 75 79 77 71 67 66 65 62 57 48 52 64 83 100 97 98 90 64 86 78 64 75 80 58 36 31 34 32 21 16 16 13 12 13 7 4 6 7 14 20
94 96 98 98 87 75 71 74 73 74 71 68 63 74 99 97 98 99 71 87 86 62 69 77 76 48 33 32 35 28 20 17 12 12 14 15 8 6 7 7 13 25 71
98 96 90 81 78 75 75 82 91 82 64 74 100 98 98 98 83 85 90 63 66 73 77 62 42 33 35 36 28 23 19 13 12 14 15 7 7 8 8 14 28 72 77
75 69 70 76 81 90 98 81 64 87 95 93 97 96 85 85 83 61 65 74 73 72 54 42 37 40 38 29 22 14 12 13 16 15 7 8 9 8 14 25 72 78 83
79 85 88 92 79 71 85 92 92 97 100 92 75 68 69 57 64 79 70 74 66 52 47 43 43 39 27 17 14 12 14 18 13 7 8 11 9 14 24 70 72 80 84
87 84 84 89 96 94 94 98 92 61 40 51 70 62 63 83 67 72 76 62 56 54 46 45 35 22 17 16 13 16 19 10 6 8 11 9 14 26 70 75 77 78 67
100 98 98 96 95 81 48 29 32 51 72 67 62 84 74 64 76 73 62 63 56 50 44 27 19 16 14 13 15 17 8 6 8 12 10 14 31 81 82 80 55 27 21
98 94 67 32 27 29 33 48 68 70 58 83 86 62 70 79 72 67 69 57 52 36 24 20 14 14 17 19 18 7 7 9 12 11 13 34 83 84 61 26 22 22 27

GFSMW_500_rhum_033.txt.gz
RH
16 16 20 18 12 14 19 58 55 48 37 33 37 17 22 43 67 72 78 79 83 91 88 76 68 56 52 40 23 26 36 38 38 34 27 25 25 17 15 23 31 39 41
18 16 18 18 14 12 15 39 58 50 44 34 36 22 23 48 69 76 83 77 81 81 77 74 68 59 52 47 41 39 40 39 32 25 25 25 21 20 33 42 43 43 42
19 18 17 19 18 13 16 29 53 55 44 37 32 38 24 44 66 70 72 74 74 75 73 68 66 57 52 49 44 44 40 30 24 28 28 20 22 26 43 46 47 50 55
25 24 21 19 20 18 18 21 44 58 47 42 31 42 37 31 41 45 43 56 64 72 67 65 62 54 49 48 40 39 31 23 31 28 19 19 28 32 38 58 64 60 59
34 31 27 26 23 21 18 20 32 57 50 46 34 43 42 34 51 43 39 43 51 50 56 61 54 47 47 42 37 33 24 32 27 20 26 35 39 38 34 35 63 78 75
34 33 32 29 27 23 20 20 26 52 57 49 36 39 47 39 31 29 35 41 46 52 54 49 42 43 40 35 34 27 34 25 19 25 35 41 40 47 48 53 57 57 64
35 26 24 28 29 25 23 23 26 51 57 48 39 35 38 41 37 26 25 33 34 36 37 39 40 37 34 36 32 35 25 24 26 36 39 38 56 71 72 67 59 51 49
35 28 27 25 29 26 24 24 32 60 58 55 46 37 33 37 36 28 30 27 32 38 39 36 32 34 38 38 34 27 28 30 38 42 51 73 73 76 68 62 53 45 48
38 35 34 34 29 26 24 25 43 61 59 58 51 44 37 43 44 30 21 22 25 26 26 28 37 43 41 33 32 28 31 40 49 71 77 79 69 64 62 63 61 56 45
50 42 37 30 27 25 24 28 35 48 55 58 54 48 49 53 52 44 26 17 18 24 31 44 48 41 37 36 32 35 51 69 76 80 74 64 65 67 69 66 58 39 29
51 46 37 30 25 26 25 28 29 41 58 59 58 54 59 54 55 54 37 26 28 40 49 51 43 41 36 35 39 64 79 80 76 65 69 68 68 72 65 49 27 24 17
55 46 39 33 25 25 24 28 48 59 61 57 57 56 56 55 65 44 28 34 46 52 50 50 46 36 38 53 81 84 84 66 69 69 69 73 72 58 36 25 25 14 11
55 42 33 29 24 24 28 43 69 70 62 57 58 56 59 75 60 30 40 47 50 52 56 47 36 45 72 86 81 85 60 69 74 68 75 69 51 29 27 24 16 12 8
46 36 30 25 27 28 38 58 65 73 62 60 60 58 74 80 36 45 50 49 61 58 40 40 59 82 90 82 84 62 75 72 71 76 64 40 27 30 25 17 11 8 7
52 30 24 32 31 33 37 54 65 68 66 66 59 69 86 42 48 50 58 68 59 35 44 75 91 89 88 80 66 79 68 74 76 53 33 30 32 22 17 8 8 7 7
73 59 51 38 33 38 52 75 72 72 69 61 82 61 50 53 56 74 72 49 32 50 83 94 92 92 69 77 74 68 75 71 46 32 34 33 24 11 8 10 9 7 6
81 72 64 62 47 55 77 74 69 71 76 71 60 56 59 77 82 63 30 36 64 84 96 94 85 73 82 66 74 75 61 41 34 39 28 14 11 9 10 8 7 6 6
75 75 80 75 69 75 79 78 82 77 68 60 64 80 87 70 41 36 56 70 91 96 93 79 83 72 68 75 71 54 41 38 40 24 16 13 10 11 9 7 5 6 8
90 94 98 90 98 100 91 77 69 65 68 77 82 68 48 51 66 71 86 98 92 90 82 78 65 74 72 65 51 45 43 37 19 16 12 12 11 10 6 4 6 8 11
97 98 98 97 96 96 96 93 84 78 82 76 70 74 76 70 82 96 93 95 84 80 63 74 72 71 59 53 48 45 28 18 13 13 14 13 10 5 5 7 8 10 19
94 97 95 92 96 98 96 87 82 85 90 92 89 71 84 93 95 97 82 74 61 73 75 70 71 59 57 52 42 24 18 14 14 15 14 9 5 6 8 9 10 20 69
98 96 90 90 87 83 78 79 84 96 86 77 90 93 97 96 70 68 63 69 80 68 71 68 63 62 53 38 26 21 16 16 18 17 9 5 6 8 10 10 23 77 79
84 81 81 78 78 86 94 86 82 90 96 99 99 73 49 66 68 66 81 72 66 74 67 68 65 51 33 29 26 22 21 21 15 8 5 6 8 11 11 27 78 82 70
90 93 95 92 85 90 97 99 98 98 76 38 40 65 69 64 79 81 62 70 74 72 74 62 45 33 31 24 22 22 17 11 8 5 6 7 10 11 39 80 60 24 18
97 96 95 96 98 99 95 64 34 31 38 51 65 62 72 84 66 66 79 78 78 74 55 40 34 28 23 21 19 14 11 9 4 6 7 10 15 63 74 31 24 36 49
97 98 97 84 49 33 32 30 30 37 52 58 69 86 76 62 74 83 82 79 65 46 39 33 27 24 22 20 15 12 7 5 6 7 10 34 64 39 32 49 57 52 53

GFSMW_500_rhum_036.txt.gz
RH
20 14 11 20 21 16 15 14 26 71 65 54 47 40 29 35 45 42 38 46 81 92 84 82 87 92 86 75 69 62 53 44 38 42 46 43 34 24 24 29 22 18 20
24 20 14 14 25 21 17 14 16 32 69 64 52 45 35 40 54 51 60 66 81 87 83 85 88 82 77 73 69 65 53 47 43 44 43 37 25 25 30 24 20 24 32
30 28 21 15 24 22 17 15 14 20 33 62 61 52 45 36 37 29 47 70 75 84 87 84 83 78 75 71 67 63 52 48 46 41 40 28 25 31 26 25 27 32 41
29 34 26 18 21 20 18 18 15 17 22 36 62 58 49 40 44 45 37 56 78 75 83 88 76 70 72 63 63 58 47 46 43 38 29 27 32 24 23 34 38 46 46
28 39 34 22 22 21 17 20 18 17 18 23 60 61 50 43 35 55 70 65 60 53 46 50 56 60 52 56 57 47 41 38 38 33 30 32 25 26 28 33 42 44 65
36 31 41 29 25 22 20 18 20 18 17 20 37 65 56 48 42 55 65 53 59 47 47 45 45 46 50 48 41 41 36 33 30 34 32 28 29 31 30 28 44 60 76
43 32 43 38 32 26 23 22 21 20 18 20 26 64 64 50 61 62 63 56 35 31 31 36 37 38 37 40 38 33 33 33 38 31 31 30 32 31 42 51 56 56 58
57 45 38 44 36 32 28 29 27 22 19 21 24 59 63 52 41 48 60 48 35 30 33 46 40 36 35 31 33 38 39 39 34 34 31 30 37 62 65 59 54 47 45
57 57 39 44 40 32 29 32 29 25 20 20 23 56 64 57 53 50 58 54 41 50 36 23 23 24 28 36 47 46 39 38 35 33 35 58 69 68 56 49 50 54 45
61 53 53 39 43 34 27 30 29 25 21 21 25 55 66 59 53 61 73 74 58 43 43 36 28 30 42 53 50 43 44 36 35 52 72 73 64 54 55 62 60 55 49
54 54 49 43 38 34 30 31 27 24 21 21 25 53 68 63 61 70 84 79 76 72 50 34 34 50 56 51 52 46 37 39 71 79 75 62 63 66 65 60 56 44 33
46 53 52 49 39 39 35 31 26 23 22 25 31 57 72 68 64 73 77 75 90 69 40 40 56 59 55 60 46 37 56 89 85 78 64 70 67 66 59 54 37 36 36
40 47 54 53 47 42 31 27 26 23 25 27 33 62 75 73 70 68 71 80 97 50 45 63 60 63 65 43 45 78 96 90 75 70 71 68 65 58 47 39 40 31 17
47 49 47 53 47 37 30 25 26 25 28 30 44 73 76 75 76 73 72 100 71 49 69 68 74 70 42 55 88 98 90 73 77 68 69 63 56 45 44 40 24 15 14
62 55 48 51 46 39 31 26 26 28 33 46 74 81 81 80 78 79 98 83 54 69 80 84 68 42 73 95 98 85 77 75 69 69 62 52 47 48 32 18 16 14 13
78 63 54 43 35 30 26 31 31 38 57 75 82 87 91 86 85 100 60 60 71 89 95 48 51 91 100 97 83 79 69 72 67 61 53 52 47 26 19 17 15 17 15
76 55 39 30 33 37 40 39 44 50 62 88 93 95 88 100 86 62 68 80 94 75 38 80 98 99 94 84 76 70 72 68 60 56 56 42 27 21 18 18 13 10 8
74 71 36 38 50 45 40 42 53 76 91 86 89 98 94 77 75 81 94 82 41 72 91 100 97 91 80 69 74 71 68 60 61 54 37 27 24 20 15 9 10 8 5
95 84 79 73 74 72 66 76 90 88 92 98 93 88 91 96 99 75 54 75 83 100 98 96 78 69 75 74 71 67 64 64 45 31 27 20 15 14 13 11 7 5 7
91 100 100 99 100 99 94 93 92 90 91 93 98 98 96 81 81 85 83 100 99 98 75 68 70 77 73 73 68 68 61 39 30 24 19 17 15 13 10 5 5 6 10
98 100 98 96 99 99 94 92 95 97 97 96 96 98 98 88 83 98 98 98 72 67 68 79 72 73 74 70 67 48 34 29 22 19 16 12 11 9 5 5 7 10 20
93 97 97 98 98 98 98 96 94 96 97 100 96 86 84 93 96 86 62 67 69 81 76 73 77 75 70 57 40 33 26 22 19 16 14 12 7 5 5 8 18 54 73
97 94 92 89 87 90 91 90 93 91 86 83 88 91 74 46 49 76 68 78 82 69 72 78 76 68 47 37 29 24 22 20 18 16 13 5 5 6 17 48 55 41 29
88 84 82 81 80 79 81 82 84 88 85 60 34 34 57 76 66 70 86 74 66 71 77 71 56 42 35 26 22 17 16 15 13 10 4 5 8 35 44 33 30 33 34
80 77 77 80 84 88 91 83 49 29 30 36 49 65 63 68 87 82 68 66 73 74 64 49 40 31 26 20 15 15 15 14 9 4 5 15 42 35 30 28 26 25 23
94 92 91 85 62 36 31 32 34 36 40 50 59 70 86 83 76 67 70 77 71 57 45 35 27 25 19 15 13 14 16 9 4 5 28 38 26 27 28 27 21 18 17

GFSMW_500_rhum_039.txt.gz
RH
14 14 14 16 15 14 16 20 17 14 15 18 46 59 59 50 43 37 39 55 43 33 35 45 84 100 87 87 90 94 91 79 72 68 58 51 48 46 45 45 39 26 29
15 14 14 17 18 16 14 23 22 17 16 16 28 54 44 55 50 48 58 68 86 73 55 68 74 100 97 93 92 89 80 75 69 66 62 52 48 45 44 41 32 29 29
16 17 16 15 17 18 16 18 26 19 19 17 16 21 37 64 56 48 45 52 65 76 67 82 92 99 98 98 94 90 80 74 66 63 62 51 45 46 43 35 30 30 27
14 15 18 17 16 18 18 16 22 23 21 19 16 17 26 50 62 56 50 62 70 70 61 68 87 95 95 98 94 80 67 66 56 56 54 45 43 42 38 32 32 29 30
16 14 14 18 18 20 19 19 16 25 22 17 15 17 17 20 58 66 57 53 50 76 77 66 71 79 62 54 54 56 52 48 50 46 42 38 36 33 34 33 33 32 31
19 17 18 17 19 21 22 20 18 21 19 16 17 16 14 19 43 66 62 59 66 66 80 78 72 71 59 50 46 44 44 40 40 40 35 34 34 36 35 34 33 32 53
15 20 21 22 22 25 25 22 22 20 18 18 17 18 16 20 24 60 67 64 85 80 78 78 62 45 38 32 37 43 44 39 33 34 39 44 40 38 36 33 33 42 60
20 17 22 24 27 34 28 27 25 25 23 21 22 18 19 19 22 48 76 67 64 58 66 66 56 39 39 52 44 29 28 32 36 47 47 42 41 37 35 43 50 54 57
28 15 16 29 36 38 34 34 33 29 27 25 23 20 21 20 28 43 71 64 55 61 67 72 55 51 54 28 36 35 36 44 54 48 46 43 37 38 58 66 64 58 48
43 22 18 24 41 48 40 45 39 34 31 29 26 24 21 22 33 47 71 65 70 73 79 86 81 70 74 59 43 41 52 56 52 52 44 36 48 70 72 67 60 52 56
44 24 24 34 50 51 46 50 43 38 35 32 30 27 23 26 30 58 73 72 78 87 93 94 89 94 80 49 45 59 60 59 58 44 38 63 77 76 68 58 61 60 51
45 35 33 74 64 56 50 52 48 35 32 31 31 29 26 23 31 61 79 77 78 97 98 87 80 98 66 48 65 65 71 65 43 48 77 83 76 67 61 66 58 51 49
32 28 59 79 68 60 56 51 48 37 31 32 32 30 28 28 42 69 80 90 81 89 80 79 97 96 52 65 72 82 66 39 70 88 87 78 66 66 65 56 52 54 50
32 49 73 82 66 60 58 50 42 38 36 33 32 30 29 35 51 69 84 89 85 82 80 85 99 60 66 79 91 58 52 88 95 88 76 68 70 64 59 57 56 41 27
50 61 75 80 66 63 57 48 41 38 36 35 33 33 37 41 50 73 90 91 92 97 89 98 62 71 90 93 46 78 96 97 86 73 71 70 63 60 61 47 33 26 19
48 55 80 76 65 53 39 36 36 36 37 35 33 37 39 42 65 91 98 94 84 100 97 67 78 100 68 60 95 99 95 78 71 75 68 65 63 57 38 28 22 17 13
47 56 77 72 59 51 38 32 33 36 36 37 39 41 46 71 93 99 94 88 100 91 82 97 92 61 92 99 98 86 72 75 73 69 67 63 44 32 25 19 14 10 8
72 74 68 59 48 43 38 35 36 46 41 41 43 55 91 98 94 82 100 95 81 95 98 91 97 100 99 92 72 73 76 70 70 67 50 37 28 21 14 8 7 7 8
70 59 42 37 40 43 45 46 51 50 48 57 60 84 95 94 98 94 83 95 97 96 98 100 100 95 69 71 79 74 71 70 59 42 33 22 13 9 7 7 8 8 4
96 74 42 54 69 64 56 53 55 58 73 98 98 82 83 86 88 94 96 96 96 100 100 96 69 68 79 76 71 73 69 51 38 29 18 11 10 8 8 7 5 3 7
99 99 99 99 100 100 99 100 99 93 79 64 79 89 93 97 97 94 96 99 100 88 69 69 75 82 71 72 73 60 44 34 25 19 11 8 8 8 7 4 4 18 39
94 92 95 96 93 91 89 89 88 91 95 96 98 98 96 93 98 100 96 66 67 71 71 83 75 66 71 67 52 40 29 22 16 11 9 9 10 6 4 7 31 34 24
97 98 98 97 98 97 98 98 98 98 100 100 91 93 100 100 70 52 69 74 68 81 78 68 69 72 60 45 34 26 21 14 10 10 10 8 5 4 18 32 22 23 25
96 95 96 95 91 93 95 96 95 98 100 100 94 64 43 51 67 71 67 80 80 71 65 71 65 51 39 29 24 19 11 10 10 9 7 5 5 28 25 22 24 26 26
95 97 97 97 99 100 100 100 94 68 42 38 42 47 54 61 70 85 83 75 64 68 68 54 43 32 25 20 15 12 11 10 8 6 4 8 30 23 26 26 22 25 30
100 100 100 97 77 52 38 36 38 40 41 42 48 60 74 85 85 76 64 69 69 57 46 34 26 23 16 13 12 12 10 9 5 4 11 29 24 24 20 20 27 33 41

GFSMW_500_rhum_042.txt.gz
RH
14 13 12 12 13 13 13 13 13 16 16 13 14 12 14 12 16 43 55 54 56 63 51 55 58 42 34 39 54 94 97 88 89 90 92 86 80 73 68 62 52 48 48
11 14 14 14 14 14 14 13 14 14 14 17 15 15 12 12 12 23 46 59 70 68 73 70 83 96 57 62 68 78 98 94 92 94 94 86 76 69 63 60 56 48 45
10 9 9 8 9 12 14 14 14 16 15 15 20 16 13 15 14 16 25 46 65 77 63 65 75 82 86 83 91 95 97 98 96 95 87 78 70 61 54 53 46 41 41
6 5 6 6 8 10 14 16 16 15 17 15 18 21 16 16 21 22 23 36 53 74 76 61 78 92 88 72 81 92 99 91 83 72 60 57 50 48 48 42 40 38 35
12 12 11 11 11 12 12 14 18 16 18 17 18 23 22 23 28 26 26 28 44 61 77 72 64 69 82 93 91 93 75 70 57 51 46 44 42 39 39 35 35 37 39
12 12 12 12 14 14 14 14 15 18 18 18 20 22 27 22 22 18 20 24 29 55 79 83 74 82 84 85 85 78 64 49 38 38 45 44 32 28 25 29 40 41 40
12 12 13 11 12 13 18 18 16 18 22 20 25 21 26 23 18 20 20 22 27 47 77 87 82 98 95 80 77 64 43 45 61 47 28 27 30 33 42 45 44 40 40
23 18 16 16 15 12 14 26 22 18 25 27 34 28 18 25 20 23 22 24 27 35 60 81 76 74 72 72 70 56 57 50 50 52 43 40 50 53 50 49 43 39 44
66 52 41 34 21 16 10 19 28 25 33 36 40 28 21 23 22 25 24 24 31 40 71 78 71 65 79 80 88 80 82 85 62 47 47 64 60 58 57 42 46 49 52
52 60 62 50 44 30 19 12 33 35 40 48 40 28 27 26 24 27 27 26 31 46 72 75 76 77 88 98 98 98 100 88 57 49 66 63 64 57 43 55 68 71 58
44 46 60 58 55 47 30 11 38 52 50 49 38 35 37 33 29 30 31 29 43 52 74 79 78 87 92 98 98 95 100 84 52 64 65 74 51 50 71 78 74 54 57
64 36 48 53 45 31 18 16 45 66 56 52 52 44 41 36 35 33 38 51 48 51 68 82 87 91 100 90 87 91 98 67 69 75 82 47 68 80 83 63 61 69 58
96 72 42 61 34 32 23 39 69 73 59 62 52 47 43 40 45 57 39 47 50 60 83 90 90 97 87 86 93 100 96 78 86 72 58 82 87 79 61 71 66 55 52
99 88 77 56 42 34 52 83 91 73 68 59 48 46 43 62 66 45 41 49 47 69 92 93 94 93 90 98 99 97 97 98 66 84 91 94 70 69 72 60 55 46 32
57 84 86 56 61 49 75 100 93 72 64 55 47 44 44 45 44 48 49 53 70 73 93 97 100 97 100 98 97 98 99 92 98 100 86 70 75 67 58 52 41 29 10
57 71 63 63 66 62 100 98 76 64 57 50 46 45 43 53 54 68 60 58 52 93 94 99 98 100 100 97 98 97 98 100 96 73 78 75 64 58 49 38 27 15 10
40 46 58 59 75 99 99 96 58 52 48 46 48 46 54 73 62 52 51 57 96 96 99 95 100 99 98 98 96 98 99 78 76 79 67 63 57 43 31 18 13 9 8
43 51 56 86 96 97 94 48 46 44 44 56 50 46 49 50 48 45 57 97 97 96 100 99 98 100 98 96 98 82 73 82 72 64 62 51 37 23 16 11 7 5 6
62 72 80 92 96 85 41 36 35 37 39 48 56 55 51 45 81 76 92 61 96 100 97 100 97 90 94 85 72 80 78 64 62 56 44 31 21 16 9 8 6 7 8
68 67 62 46 46 46 44 43 52 52 55 55 52 54 47 100 99 98 99 99 98 99 98 91 97 82 71 75 81 68 62 61 47 35 25 19 12 10 10 8 6 7 5
48 41 38 37 39 57 55 47 55 67 90 82 98 98 99 92 89 98 99 98 96 95 96 74 72 74 82 72 64 63 53 39 27 20 13 10 8 8 8 7 5 8 24
93 77 85 93 96 98 97 96 98 97 96 98 98 98 96 89 98 91 91 95 83 65 73 74 83 76 62 62 57 43 30 22 17 13 12 9 7 8 7 5 17 24 21
82 87 96 76 76 99 100 95 91 86 84 80 82 87 93 90 92 79 53 63 72 69 84 78 64 63 60 45 33 25 20 14 12 10 8 7 8 5 6 25 22 15 13
87 95 96 97 96 96 95 93 95 96 96 94 93 88 62 41 46 58 67 71 83 81 64 63 62 49 36 28 25 18 13 9 7 7 10 10 4 10 25 19 12 14 18
92 91 90 91 91 89 91 92 92 91 75 49 40 45 51 56 65 77 85 81 64 64 62 52 39 31 26 19 16 12 8 7 8 12 12 4 16 24 16 14 17 22 26
98 98 98 91 77 60 47 40 40 43 46 46 48 54 67 83 87 78 61 64 65 55 42 34 30 23 15 13 11 9 8 10 14 11 4 18 24 14 15 20 29 35 42

GFSMW_500_rhum_048.txt.gz
RH
11 10 9 9 10 10 10 11 10 8 12 36 39 37 44 48 44 23 24 24 16 18 18 23 23 40 56 66 66 69 70 60 73 77 84 78 89 89 85 92 97 98 96
13 12 10 10 10 11 12 12 11 10 8 14 28 24 20 31 37 48 54 68 52 42 46 37 39 39 42 58 70 78 78 67 66 86 86 83 81 81 96 98 95 72 62
13 16 15 14 12 11 11 12 12 11 11 11 12 30 36 33 34 45 48 62 76 80 70 66 55 39 61 63 60 71 82 76 72 66 70 86 99 96 92 92 88 61 46
16 15 14 14 14 15 15 14 13 12 11 11 11 12 12 16 15 16 22 36 41 47 64 67 66 67 75 77 66 72 71 75 78 75 79 84 96 97 97 84 49 45 47
13 11 10 10 11 11 11 12 13 14 13 11 10 8 7 6 9 15 27 36 55 68 86 95 90 86 78 76 65 81 79 87 79 81 85 95 83 71 68 56 56 55 63
11 10 10 10 9 9 8 8 8 8 8 8 7 5 5 5 7 12 18 31 38 58 65 79 82 82 76 70 61 78 76 75 82 88 85 75 71 75 76 73 80 81 76
9 9 9 8 9 9 10 10 11 12 13 13 12 10 7 8 10 13 15 18 29 45 56 73 80 81 74 61 59 58 54 59 85 90 73 72 78 83 88 87 83 79 81
11 10 9 10 10 10 12 11 12 12 13 13 13 12 12 11 12 13 19 20 28 48 48 69 70 77 72 56 50 43 48 68 83 78 75 74 86 92 88 80 73 71 77
14 23 30 28 27 26 27 38 39 21 15 15 14 12 11 10 11 13 20 28 37 55 72 69 70 77 77 60 36 36 50 78 68 76 80 88 86 88 79 78 71 66 64
25 26 24 20 28 25 26 26 36 52 46 22 15 13 11 11 14 18 33 33 61 63 71 74 76 71 67 35 32 47 66 80 67 72 77 78 83 75 76 80 85 84 77
45 46 42 43 47 52 60 48 36 37 39 51 36 16 15 11 16 57 46 62 72 79 73 73 73 59 41 35 36 56 59 77 77 96 93 82 91 98 84 77 88 86 87
53 61 76 91 93 85 82 74 52 47 42 31 57 45 26 23 55 45 58 68 70 74 73 75 57 44 39 39 39 61 72 71 82 86 84 76 98 98 78 85 93 100 99
37 90 71 78 80 93 100 72 50 41 40 30 37 58 34 35 59 59 70 78 74 73 74 55 45 43 42 46 91 98 99 50 95 95 97 100 98 95 94 100 100 98 92
27 66 54 39 37 48 54 65 50 82 38 36 38 61 62 48 53 67 71 70 71 71 61 51 45 46 51 61 59 51 43 96 91 95 99 98 90 100 100 99 96 78 73
25 25 32 61 56 40 58 59 61 65 65 78 74 87 89 60 46 56 67 68 71 64 58 52 57 63 60 95 47 52 81 100 100 98 95 88 100 100 97 79 74 67 61
36 30 30 48 75 84 88 88 90 93 87 79 86 95 78 49 39 64 72 73 63 55 58 66 78 58 98 75 49 95 99 87 87 92 90 97 94 80 75 73 64 59 36
54 53 51 38 35 37 42 42 52 71 89 100 99 85 60 66 76 75 71 56 55 67 82 68 64 92 73 84 100 98 93 90 95 99 97 82 76 76 69 63 45 27 22
71 74 75 86 73 55 44 65 92 99 100 99 100 95 92 90 85 65 58 88 95 98 70 87 98 98 85 62 82 100 100 100 97 73 69 79 73 65 50 29 21 17 14
66 77 86 89 82 89 98 99 100 100 100 100 98 96 91 94 69 88 96 97 90 80 99 83 53 77 89 99 98 98 89 68 67 74 70 64 55 33 24 16 14 12 10
42 52 81 71 79 88 94 94 97 96 95 90 86 82 99 98 99 78 70 91 95 80 60 91 93 95 100 100 93 60 69 73 71 61 56 41 28 22 18 13 11 10 10
46 70 98 80 69 68 87 100 76 71 91 100 99 99 89 82 93 100 99 97 99 97 99 96 100 94 75 57 61 64 65 59 59 43 34 30 27 23 15 13 13 12 9
82 91 91 83 94 75 94 98 96 97 98 97 96 95 97 99 95 87 94 96 94 95 86 61 52 54 61 69 62 58 58 50 40 37 36 32 22 16 16 15 14 7 8
86 80 74 77 93 97 96 89 83 91 95 98 98 89 89 90 94 94 95 78 48 43 50 61 71 65 54 54 56 50 41 38 37 32 26 21 18 18 17 13 5 10 18
98 93 87 96 100 90 87 95 98 96 92 89 90 90 86 75 56 42 42 47 62 74 65 54 50 54 55 46 40 38 35 30 25 22 21 20 19 14 8 4 14 18 19
97 96 95 94 91 88 83 76 67 58 47 42 43 44 44 44 49 59 66 63 52 51 57 59 55 46 40 36 32 26 24 22 20 17 12 9 7 3 5 20 17 24 29
94 92 85 65 63 62 52 45 43 42 40 40 44 50 56 61 63 58 52 55 59 60 55 46 41 37 31 27 26 24 18 12 8 6 4 3 4 7 23 19 28 31 34

GFSMW_500_rhum_051.txt.gz
RH
13 11 10 10 10 9 8 9 8 7 8 8 12 42 58 64 62 63 54 53 34 42 62 65 46 38 27 23 27 34 42 53 56 61 66 62 62 72 77 81 83 80 80
13 11 9 9 9 10 9 9 9 9 9 10 11 11 28 52 50 53 52 52 62 67 81 91 88 84 69 52 46 46 40 47 58 65 71 69 63 61 65 74 73 77 88
14 12 10 9 9 11 11 11 10 10 10 9 10 12 12 20 43 38 45 53 57 65 72 73 81 91 91 85 67 55 56 74 61 61 57 57 62 68 74 75 82 83 82
11 12 12 11 11 11 13 13 14 13 12 11 9 10 12 12 16 35 56 55 40 38 46 60 77 84 89 95 95 96 95 89 68 61 65 68 64 73 74 78 77 70 68
13 14 12 13 14 15 14 14 14 14 14 14 11 10 10 11 12 14 15 16 22 22 40 54 61 77 94 98 97 97 97 94 71 66 69 66 58 73 77 69 68 74 80
14 14 15 15 15 14 13 12 12 12 13 13 12 10 10 9 8 12 12 29 20 28 36 36 49 62 74 86 89 96 97 96 79 66 58 58 55 80 78 68 72 82 83
11 11 11 11 11 11 11 11 10 10 11 11 11 10 10 9 8 8 9 16 23 17 15 19 26 34 54 75 87 95 96 95 79 63 53 48 53 71 69 70 72 77 80
10 10 10 10 10 10 11 10 10 10 10 10 10 10 9 8 7 6 6 9 11 21 28 32 32 56 65 74 94 89 94 91 72 64 39 34 84 61 67 72 80 76 75
10 11 10 10 10 10 10 11 18 22 22 17 14 13 11 11 11 11 12 11 12 17 33 34 46 70 75 79 80 83 78 82 71 52 36 44 94 63 67 73 80 83 73
22 19 20 24 29 29 30 29 25 27 35 47 54 40 24 15 13 14 14 13 12 23 41 42 55 72 76 72 80 88 79 76 70 35 40 63 94 65 59 73 66 67 69
26 27 30 34 35 38 34 41 51 57 50 38 37 37 53 48 24 17 14 12 12 15 44 65 78 83 78 85 82 82 80 75 44 35 45 71 66 85 99 99 92 72 82
28 30 26 20 24 25 20 23 41 90 81 65 59 48 36 50 47 22 14 11 10 14 64 64 73 75 86 90 78 80 75 47 36 40 89 93 100 66 77 100 93 99 98
18 17 18 26 31 17 26 67 74 96 100 100 93 66 46 42 55 42 21 16 13 32 75 74 67 72 80 80 80 66 45 41 45 78 98 92 62 99 94 100 100 94 83
21 25 34 40 19 22 37 50 38 54 92 100 93 66 53 55 51 70 66 33 28 62 70 74 76 72 70 71 53 44 44 58 80 64 55 53 98 100 99 94 82 90 97
34 40 40 43 16 22 50 57 41 51 96 100 87 68 51 48 40 76 86 50 55 70 89 89 86 72 65 55 52 63 73 91 99 78 52 63 87 99 97 98 98 94 80
51 40 40 40 16 31 39 80 79 60 63 74 87 84 82 72 60 79 92 66 49 55 69 82 71 62 58 58 89 99 100 99 99 100 100 100 98 96 97 85 74 82 77
43 45 48 42 25 20 30 48 92 86 72 61 62 66 55 52 54 61 78 55 29 55 83 71 63 62 62 97 99 97 77 100 89 100 96 93 98 94 71 79 76 64 51
40 51 54 50 56 58 36 59 99 97 100 93 100 100 94 99 94 77 49 37 71 95 96 64 69 96 98 99 99 94 94 97 93 98 98 85 73 75 70 63 55 39 34
45 48 60 64 69 76 86 77 72 85 100 100 100 100 100 83 91 91 91 99 89 89 92 96 100 99 99 87 93 100 100 100 99 79 69 71 68 62 56 47 38 36 37
61 60 54 64 66 78 97 99 100 95 89 85 88 91 96 96 99 100 100 97 94 98 96 98 97 82 74 87 100 100 85 64 64 62 57 52 49 44 34 33 34 30 25
68 78 67 72 61 78 65 68 89 95 97 96 96 95 94 98 97 96 98 99 100 100 92 96 98 94 95 92 62 54 60 60 56 50 45 37 34 33 30 26 24 21 15
65 69 76 69 76 87 78 74 84 95 96 98 95 99 99 98 99 99 98 97 92 93 100 98 80 56 57 65 61 53 50 44 36 34 31 28 26 25 22 15 10 8 5
76 82 82 81 82 81 84 82 79 87 80 92 95 95 89 88 89 92 96 91 67 50 53 68 73 62 54 54 48 37 32 28 24 23 21 19 16 13 10 7 4 3 7
88 86 84 83 84 94 89 80 83 89 95 94 86 73 61 52 46 46 55 72 81 76 58 52 54 54 45 35 33 28 24 21 14 9 7 6 4 4 4 3 4 16 22
89 89 88 82 78 70 60 49 44 42 42 42 44 47 54 64 73 76 69 58 52 54 57 55 46 38 33 30 27 24 20 11 9 5 4 5 4 3 3 9 21 29 33
95 90 80 76 67 54 45 40 40 43 47 49 52 59 63 62 59 53 51 57 61 59 51 41 38 35 33 30 21 12 9 8 4 5 5 3 3 6 20 22 30 33 34

GFSMW_500_rhum_054.txt.gz
RH
10 8 6 7 11 9 8 9 9 9 9 9 11 10 8 13 27 36 57 70 69 70 56 57 55 60 64 78 70 56 51 32 32 36 32 36 47 55 59 59 57 60 62
9 8 6 6 10 10 8 8 9 9 9 9 9 8 9 9 11 25 48 70 84 84 82 80 87 82 83 84 92 89 89 78 61 46 36 56 50 57 53 56 57 60 70
7 7 6 6 8 9 10 9 9 9 9 9 10 9 9 9 10 14 18 36 50 72 68 61 72 78 82 72 78 84 97 95 96 93 75 66 63 58 57 59 57 59 66
6 6 6 6 7 10 11 10 9 10 11 11 10 12 12 12 14 15 16 16 20 53 54 65 80 82 64 54 77 76 94 98 98 96 96 90 78 60 62 61 51 63 71
8 7 8 8 7 7 9 11 10 10 11 13 12 11 12 13 14 16 17 19 22 23 49 71 67 56 53 48 61 65 85 90 90 98 98 96 93 83 67 54 54 62 65
10 10 10 9 10 11 12 12 13 14 13 13 13 12 12 12 12 15 15 16 19 18 20 27 45 56 56 45 50 53 61 65 77 92 100 100 99 94 91 60 44 55 65
11 11 11 11 11 11 11 11 12 12 13 13 13 13 12 12 11 11 13 13 15 24 30 37 55 59 76 52 43 50 56 78 74 80 96 99 96 92 84 66 50 63 66
11 11 11 10 10 10 10 10 10 10 10 11 11 11 11 11 10 10 10 10 12 13 13 28 33 43 73 50 56 66 67 72 84 80 93 94 91 95 88 82 56 87 85
9 9 9 9 10 10 11 12 13 14 15 14 15 14 14 13 12 10 10 9 9 9 10 11 22 44 67 75 87 74 80 75 92 84 80 95 94 98 98 57 50 77 81
10 10 11 13 18 24 28 28 28 29 30 33 33 35 36 28 18 16 14 12 12 11 12 13 21 70 65 62 62 65 60 80 85 78 86 96 95 96 82 91 59 98 98
22 24 25 21 18 18 19 20 20 22 25 28 33 49 35 35 38 40 32 19 17 16 15 15 16 17 46 69 79 78 75 100 99 97 97 94 95 96 47 51 99 98 97
26 21 23 18 19 20 25 30 28 16 11 11 12 20 57 49 43 43 37 43 46 35 21 16 16 14 14 48 54 82 94 98 96 94 95 94 90 51 82 80 100 96 74
18 18 21 27 29 27 34 19 14 17 19 25 30 34 56 95 90 46 40 31 31 51 43 23 15 13 14 72 81 92 83 86 91 97 97 68 49 77 90 86 65 65 63
21 22 30 28 28 31 25 16 25 32 54 51 35 41 48 83 100 87 67 52 51 42 48 29 20 17 39 89 100 90 88 95 96 88 57 60 79 88 99 98 98 100 100
27 30 29 31 30 30 20 18 23 48 67 46 46 98 100 100 99 99 97 79 63 72 65 44 34 39 91 83 89 86 84 80 76 62 61 78 100 99 99 98 96 100 100
32 27 36 30 27 32 26 20 32 59 38 46 70 100 100 100 99 100 97 77 66 77 82 86 56 47 66 76 73 80 87 82 72 100 100 98 98 100 99 99 100 100 88
30 40 40 33 33 36 42 26 38 66 67 66 74 86 94 100 98 92 81 79 64 64 80 60 50 55 58 99 89 85 80 97 98 98 99 89 98 99 100 99 84 73 66
43 44 44 42 50 44 45 51 42 60 82 98 98 100 92 81 84 82 100 68 75 82 78 62 54 69 93 87 73 89 99 99 99 100 95 94 91 79 67 62 54 49 46
50 44 40 55 55 61 54 56 69 67 71 84 95 98 100 100 100 100 100 97 90 83 81 81 93 100 85 94 100 97 98 98 100 86 59 60 63 54 47 35 29 26 25
49 46 44 56 52 58 64 69 77 87 88 92 92 91 91 74 79 80 78 76 99 99 98 96 100 99 100 99 99 98 98 75 56 59 54 43 33 25 22 17 13 10 7
56 58 53 61 57 53 51 64 72 71 84 97 98 100 100 100 98 96 100 99 98 98 100 99 97 99 98 97 87 65 62 58 47 36 28 23 19 16 12 8 4 4 5
64 62 59 60 69 67 61 66 80 72 81 94 100 99 95 96 95 98 98 98 98 97 96 89 76 62 58 60 58 51 42 30 24 20 17 12 9 6 4 4 5 5 3
76 70 67 75 79 84 73 73 80 86 93 91 82 81 80 82 84 80 69 54 51 54 66 73 67 57 56 52 40 30 24 22 17 12 11 10 7 4 4 6 4 2 8
80 77 76 78 76 73 68 56 47 41 41 41 42 44 48 53 59 66 70 70 64 57 56 58 60 55 42 33 30 26 23 18 15 12 9 5 4 6 6 3 8 20 26
86 84 78 77 72 63 49 41 38 41 42 44 48 53 57 58 59 58 56 54 55 60 62 58 49 39 35 31 27 25 23 18 13 9 6 5 7 7 7 13 16 21 24
93 94 88 73 54 46 40 44 46 47 54 60 61 62 61 58 55 54 56 61 64 62 56 47 40 38 36 33 30 28 18 13 13 7 5 8 10 12 12 16 22 23 21

GFSMW_500_rhum_057.txt.gz
RH
13 10 9 8 8 7 6 5 9 9 9 9 10 10 12 38 38 39 28 34 49 50 55 63 59 55 52 50 54 64 73 80 76 76 80 74 65 49 36 46 45 47 47
15 13 11 9 8 8 8 5 5 10 10 10 10 11 11 10 25 28 27 26 35 45 63 82 94 88 78 80 79 84 81 79 64 68 79 92 94 90 77 54 54 52 50
15 14 12 10 9 8 7 6 7 9 10 10 10 10 11 11 12 13 16 24 24 34 36 57 76 84 84 84 68 70 83 80 61 62 73 93 98 95 95 80 72 66 54
11 10 9 8 8 6 6 5 6 7 9 10 9 9 9 10 12 12 15 14 12 14 22 34 32 48 64 75 74 83 86 73 64 64 67 80 87 82 90 96 96 91 83
9 8 8 7 6 6 5 5 6 6 6 7 8 10 10 10 11 13 13 13 14 16 16 20 25 29 34 71 82 93 76 71 66 69 65 70 69 68 72 90 100 96 93
9 9 9 8 8 8 9 9 8 8 8 9 9 10 11 13 14 15 16 15 14 15 16 24 34 40 38 52 74 68 63 74 76 69 56 61 66 73 76 84 92 98 90
11 11 12 12 12 11 11 11 10 10 10 10 10 10 11 12 13 14 15 16 20 21 20 25 27 38 51 54 55 52 76 79 92 79 70 67 77 82 91 93 97 92 91
14 14 14 13 12 11 10 10 9 9 9 9 9 10 10 9 9 10 11 12 13 15 18 20 21 31 41 59 73 82 94 97 100 93 72 69 73 82 97 97 96 94 94
14 13 11 10 9 8 8 9 10 11 11 12 12 14 15 15 15 15 14 12 12 13 15 16 18 18 26 40 53 66 84 81 91 80 90 96 88 96 99 98 93 96 94
10 9 9 10 11 12 12 13 15 19 21 23 25 30 37 38 36 33 30 24 18 16 16 18 19 19 20 31 35 47 58 100 82 79 89 98 91 100 94 92 94 92 98
11 12 11 14 18 17 16 17 17 18 21 27 34 31 23 20 29 36 42 44 38 34 32 21 19 20 23 24 25 30 40 54 80 77 97 97 97 94 98 91 95 90 90
13 16 17 17 15 14 16 18 24 25 24 18 14 14 24 32 24 15 20 54 57 46 37 41 45 33 21 20 21 21 20 20 30 59 100 93 89 97 91 86 91 87 99
25 21 20 19 20 21 23 22 21 20 16 12 27 24 26 48 55 58 37 22 27 78 49 45 46 47 50 46 30 22 18 21 79 87 90 93 93 93 93 92 86 98 70
22 21 20 21 24 24 21 21 19 13 10 14 23 23 28 40 38 32 37 40 52 67 91 61 45 40 55 61 41 24 20 21 63 92 91 79 97 100 98 100 81 90 95
27 23 23 25 28 22 20 20 16 10 13 21 23 44 57 64 65 75 64 86 100 100 100 79 56 49 62 73 50 35 31 97 96 85 96 100 99 96 88 85 94 98 98
34 28 29 34 28 24 23 22 24 20 18 25 42 62 56 76 98 99 100 100 100 100 98 96 94 88 86 78 62 58 71 85 97 100 99 92 82 93 95 99 100 100 98
37 39 40 32 33 39 30 31 35 32 32 41 46 57 78 76 82 95 100 100 100 100 97 96 97 93 100 92 66 70 78 93 100 87 81 91 97 99 99 97 78 61 50
41 42 36 36 38 37 38 44 37 36 42 48 53 64 64 85 98 96 96 100 96 100 100 100 100 76 92 100 68 65 86 97 82 94 98 99 98 85 57 39 27 21 17
50 46 36 37 37 38 41 36 44 39 45 60 62 70 70 86 92 100 99 100 93 100 100 94 97 84 73 69 78 100 99 99 99 100 94 63 47 30 22 17 13 11 9
52 46 46 50 50 44 40 44 50 58 50 61 60 72 84 86 90 98 100 96 95 100 100 99 93 82 98 100 99 100 100 98 84 61 43 28 21 15 14 13 9 4 3
54 55 49 52 56 53 55 47 59 61 65 66 73 79 88 98 99 100 100 100 100 97 98 98 99 99 100 97 83 67 61 52 43 31 24 21 16 15 10 8 4 3 3
58 65 58 57 57 65 62 56 56 64 71 65 65 68 79 90 96 93 95 90 84 76 70 66 65 65 63 58 54 52 44 35 29 25 23 18 15 12 8 4 4 5 7
69 72 68 63 60 71 69 60 61 62 54 42 39 40 44 46 48 50 53 58 61 62 60 55 53 55 57 54 44 38 36 32 28 26 16 16 14 5 5 5 6 9 10
69 73 78 78 77 72 59 47 41 39 38 41 46 51 56 58 58 57 55 54 54 55 59 62 63 59 51 43 40 36 32 30 27 19 16 16 8 6 5 9 10 12 11
81 79 82 79 74 63 48 39 39 42 48 56 60 61 63 62 58 56 59 59 59 64 68 66 58 48 44 42 38 36 34 31 23 17 19 16 13 7 8 11 13 14 13
91 82 86 86 59 50 51 58 58 61 66 67 66 68 70 70 68 66 67 67 67 68 65 59 53 46 44 42 41 38 35 30 20 20 21 16 10 8 12 14 15 15 15

GFSMW_500_rhum_063.txt.gz
RH
20 18 20 22 21 19 15 12 12 13 13 12 10 10 10 9 11 13 19 23 23 19 16 12 12 14 40 52 55 62 63 68 62 54 49 48 40 65 78 73 65 61 77
12 12 10 10 12 14 13 12 12 13 12 11 10 9 10 9 7 8 10 14 14 13 14 12 12 12 12 28 41 52 60 63 68 69 78 83 75 80 87 80 69 63 69
9 8 7 7 9 10 11 12 12 12 11 11 10 9 9 8 8 8 9 13 17 14 12 12 11 11 12 12 15 27 48 47 57 74 80 96 95 93 84 75 78 69 59
13 12 11 9 8 8 9 10 10 10 10 10 10 10 9 8 7 7 10 15 15 14 14 14 20 26 30 32 27 31 45 55 58 74 67 95 93 87 87 87 90 78 64
13 12 12 11 11 11 11 10 10 10 10 10 9 8 6 6 6 6 7 8 13 15 16 23 32 36 27 19 44 57 55 68 84 83 89 88 79 70 75 88 100 92 82
14 13 11 10 10 10 10 10 10 9 8 8 7 7 7 8 8 8 9 9 9 12 15 20 23 25 26 26 31 36 46 59 95 93 82 89 93 95 95 96 94 99 89
12 12 12 12 11 11 10 9 9 9 9 9 10 11 11 12 12 11 10 10 10 10 11 13 15 17 21 27 34 35 40 49 76 98 100 98 97 96 96 94 95 90 86
12 11 11 10 10 10 10 9 10 10 11 12 14 15 12 9 8 8 9 10 12 14 16 17 18 16 17 17 18 23 36 43 48 43 51 67 82 98 97 95 98 98 98
14 13 12 12 12 11 11 11 12 13 14 16 15 10 8 9 10 11 12 13 17 22 25 26 29 35 46 52 43 28 28 35 49 64 59 50 61 69 88 98 93 94 94
14 13 12 12 11 11 13 14 15 17 14 9 9 9 10 10 13 16 19 21 14 11 12 12 13 15 17 23 45 66 60 56 50 47 54 58 53 60 77 80 84 72 91
15 14 13 13 14 15 15 14 11 9 11 11 11 10 11 13 12 13 11 8 10 14 15 16 15 22 28 31 26 26 66 72 74 62 58 39 34 42 99 100 52 96 59
17 16 16 16 16 13 11 10 13 14 12 11 10 14 10 8 8 6 8 15 16 21 18 13 20 41 47 35 54 55 67 86 79 80 51 32 34 45 51 46 38 32 37
17 16 15 14 11 10 11 16 17 14 11 15 14 10 10 11 13 14 17 16 18 19 17 17 37 63 59 44 80 100 100 100 98 92 85 57 34 38 45 37 41 36 32
14 13 13 12 12 17 20 18 15 14 17 11 11 10 8 9 8 9 11 18 20 17 27 42 36 40 50 52 99 93 57 100 100 96 91 73 56 48 42 33 28 24 40
15 14 19 24 26 24 21 17 17 18 12 10 14 13 13 11 10 13 18 25 22 26 43 55 47 54 87 92 64 69 63 70 100 100 89 80 68 53 40 31 70 100 96
39 35 35 34 29 25 23 24 24 19 14 12 14 15 15 15 17 23 24 27 36 40 44 55 58 63 83 99 96 88 87 93 100 100 93 71 52 48 54 86 100 99 99
42 39 38 37 34 31 31 35 28 21 21 20 20 20 21 21 23 22 27 32 41 52 50 59 72 66 87 98 99 100 100 100 100 86 88 100 99 100 100 92 92 100 99
46 45 43 43 42 38 35 33 32 29 30 26 29 28 28 24 26 29 33 38 40 49 57 67 69 77 90 95 99 100 100 100 99 100 100 91 91 96 98 100 97 93 59
54 51 44 44 45 42 39 32 35 40 35 34 35 35 36 33 35 41 45 48 47 53 57 62 74 76 80 88 82 93 99 100 100 99 99 92 100 96 92 66 37 25 23
51 49 46 48 48 47 45 44 45 45 48 42 44 42 40 43 42 36 34 34 36 36 37 46 70 81 88 98 100 100 100 100 100 97 86 65 43 32 28 27 26 24 21
46 42 41 50 55 51 49 55 53 58 55 49 50 52 36 32 31 34 36 35 36 38 40 42 47 52 53 55 60 58 57 55 49 41 34 31 30 30 30 29 27 24 20
43 49 51 57 68 62 54 55 57 65 57 52 61 46 32 36 39 38 37 40 42 45 46 46 48 53 56 57 54 48 43 38 34 31 30 31 33 34 34 34 32 30 28
59 58 53 56 66 76 73 72 68 70 60 51 38 33 39 44 41 41 43 47 52 53 52 51 52 53 53 50 47 43 39 38 38 39 40 40 40 40 40 39 37 35 31
59 65 62 59 64 70 75 75 72 58 45 37 35 45 51 47 45 45 49 55 58 56 54 53 55 54 53 51 48 47 45 45 46 48 49 51 52 52 50 46 41 34 24
66 71 67 68 72 77 76 75 67 52 39 43 53 58 58 55 52 56 60 62 61 58 54 52 51 52 54 55 53 54 55 56 58 59 61 62 60 55 51 45 38 28 13
81 74 81 78 76 80 81 78 60 49 57 65 68 66 67 64 66 69 67 65 62 57 54 52 53 55 56 58 57 57 60 62 61 60 60 59 54 50 48 42 35 17 8

GFSMW_500_rhum_066.txt.gz
RH
34 27 24 20 20 20 20 19 19 20 16 14 12 17 19 15 12 10 9 11 23 25 26 21 30 31 31 19 14 21 16 11 28 47 54 52 63 64 64 62 61 65 78
45 38 30 25 23 21 20 20 21 20 18 14 12 10 11 12 11 10 10 10 15 21 22 22 27 28 28 16 12 17 49 40 35 32 44 47 55 65 75 80 95 93 93
39 29 24 22 22 20 17 16 15 14 14 13 12 12 10 11 11 11 10 10 9 12 18 29 39 32 28 24 27 30 50 63 74 81 77 76 63 58 66 94 98 98 98
18 15 14 12 10 8 8 8 9 11 12 12 12 12 12 9 10 11 11 9 8 8 7 11 17 13 16 17 26 40 31 44 57 73 79 88 79 79 78 89 92 96 96
17 16 15 13 12 11 10 9 8 9 10 10 10 10 10 10 9 8 7 7 7 7 9 14 23 19 21 16 20 31 30 28 34 49 56 75 89 84 82 93 100 97 97
17 24 39 25 20 19 15 11 10 11 10 10 11 10 9 8 8 8 8 9 10 11 11 12 15 14 14 13 15 22 21 28 34 48 54 74 85 84 88 99 100 99 98
21 26 19 14 12 11 10 10 10 10 10 11 10 9 8 9 10 11 13 14 12 10 9 9 11 14 16 19 19 18 18 22 29 32 37 58 74 95 100 98 98 98 98
22 17 15 13 12 12 11 11 10 10 10 10 9 10 11 13 14 15 12 9 9 11 13 13 16 20 23 26 22 22 25 37 49 47 42 58 50 50 62 95 97 94 90
19 16 14 13 12 12 11 11 11 11 10 10 11 12 14 15 11 8 10 11 11 12 13 13 12 10 10 13 14 14 18 19 26 36 67 69 66 68 59 65 68 58 50
22 19 16 14 13 13 13 13 12 11 11 12 14 17 13 8 10 11 10 10 8 7 7 8 10 13 15 17 21 21 20 23 31 31 34 80 93 82 78 72 70 64 58
30 28 22 17 15 14 12 12 12 13 14 17 15 9 10 11 10 10 8 6 7 9 10 10 11 13 14 21 23 20 31 60 70 53 47 59 100 100 100 96 88 75 74
30 28 25 20 16 15 14 14 14 16 15 10 12 11 10 11 11 6 5 5 8 10 10 13 17 18 19 24 26 26 41 60 50 63 100 93 98 100 100 100 91 68 54
26 22 19 17 17 16 16 15 14 11 10 15 14 12 12 11 6 5 6 5 7 11 11 17 22 21 18 20 26 27 72 81 61 91 93 98 100 95 99 98 76 81 88
21 20 19 17 16 14 13 11 10 13 16 14 12 14 11 10 8 7 8 8 11 15 14 18 23 27 22 26 34 28 50 47 75 80 100 88 100 100 94 97 87 57 54
19 17 16 14 13 12 12 17 21 20 17 15 17 12 9 9 10 9 11 11 12 14 21 28 27 29 24 24 30 34 50 45 59 59 54 94 100 100 100 99 94 68 56
18 16 15 14 19 25 29 28 27 23 20 21 21 15 11 13 14 15 15 16 17 24 26 29 30 34 35 37 36 53 66 83 46 50 98 100 100 99 100 98 76 55 48
17 19 34 38 36 34 34 32 29 27 29 27 24 23 21 22 22 19 19 22 24 31 35 33 32 36 41 40 48 51 67 73 96 100 100 100 99 98 98 100 99 98 99
34 49 47 44 42 42 40 39 38 34 31 32 30 28 22 25 29 28 30 36 37 33 29 28 29 33 45 50 52 66 74 79 90 96 98 98 92 97 100 100 100 92 80
56 51 44 44 43 41 38 43 44 39 32 35 35 35 29 32 36 36 41 35 29 28 26 25 26 30 37 50 63 73 80 90 98 100 100 99 96 87 70 54 36 29 29
44 37 37 42 45 48 48 46 45 41 39 43 46 44 44 44 45 40 32 32 32 29 28 29 32 37 39 42 45 45 47 51 52 50 44 40 36 33 32 32 34 34 35
38 38 37 37 35 35 34 43 48 47 48 50 51 54 54 52 43 33 36 36 33 34 36 38 38 39 38 40 45 48 48 45 41 38 36 35 36 37 38 39 40 41 44
53 49 44 42 39 40 50 59 58 54 57 56 58 58 65 59 34 42 42 37 38 40 43 44 41 40 40 40 41 41 40 39 38 36 37 40 43 46 48 50 51 52 52
62 58 50 47 48 47 48 61 69 71 73 72 66 59 43 35 43 48 43 43 43 46 49 49 44 40 39 40 42 43 44 46 48 48 48 49 50 48 48 49 51 49 46
66 59 57 56 53 57 57 63 70 74 73 62 49 40 38 48 54 52 49 49 51 55 55 51 47 44 44 45 46 47 48 49 48 48 47 47 47 48 50 52 52 49 49
68 64 63 63 64 61 64 68 73 75 70 56 44 42 55 63 59 59 60 60 58 59 60 57 54 51 49 45 45 46 46 46 47 47 48 49 49 49 50 54 54 53 53
74 63 65 72 73 67 71 74 76 83 66 52 58 67 72 74 75 73 70 68 67 65 64 62 60 56 54 49 47 48 51 53 52 52 52 52 50 50 54 59 56 56 50

GFSMW_500_rhum_069.txt.gz
RH
41 36 32 30 27 25 22 20 17 16 16 19 18 16 15 28 47 25 23 22 23 23 35 26 21 22 28 27 30 36 41 34 19 16 26 32 28 25 39 54 58 72 78
42 36 33 30 27 25 24 22 21 20 19 16 14 14 18 15 13 12 12 10 8 13 16 19 21 31 38 50 40 50 54 64 45 30 41 48 61 81 90 67 69 67 69
52 44 39 40 37 32 30 28 24 22 20 18 18 16 13 12 12 12 13 12 10 9 8 9 10 15 28 32 55 36 25 33 48 60 70 61 60 67 77 83 86 86 79
66 61 58 56 52 38 30 26 22 20 18 16 12 9 8 8 9 10 11 11 11 11 9 8 7 6 7 17 30 42 51 47 53 56 66 73 81 78 69 78 81 97 97
57 54 51 46 40 40 36 20 13 9 8 7 6 7 7 7 7 9 10 11 10 9 8 8 8 10 14 22 24 26 32 47 44 49 55 57 63 68 79 77 94 97 97
63 47 34 20 15 14 13 12 12 12 11 11 10 10 10 10 10 10 9 9 8 9 10 12 12 12 12 11 12 14 16 18 22 27 35 44 54 66 76 79 94 97 98
37 20 18 18 17 30 33 27 23 17 12 10 10 10 10 11 10 9 8 9 10 13 15 13 9 10 13 14 17 18 19 16 14 14 17 24 41 64 85 79 77 77 90
36 29 25 20 21 30 30 19 13 11 12 12 11 11 11 10 9 10 11 13 15 16 10 9 10 12 11 8 9 9 12 14 15 15 18 22 25 32 48 68 88 95 81
42 40 35 32 25 20 18 17 14 12 11 10 10 10 10 10 11 13 15 17 11 9 9 9 8 8 7 8 9 13 16 17 17 20 18 20 24 27 29 50 73 99 99
41 38 38 33 21 18 15 14 13 12 11 11 12 11 11 12 14 15 12 10 11 10 8 6 6 4 7 8 15 14 12 17 17 24 33 41 61 67 61 60 66 80 99
43 30 25 23 20 18 18 16 14 13 13 12 12 11 13 15 12 10 11 9 9 6 5 4 4 6 8 11 17 14 12 13 20 18 34 56 64 73 71 81 73 67 69
42 40 38 38 33 34 30 22 18 17 14 13 13 15 16 11 11 10 9 10 6 5 5 6 7 8 10 13 17 15 15 15 14 16 30 41 60 67 69 84 90 79 94
40 44 53 55 46 34 29 24 19 15 14 15 16 15 11 14 13 10 11 7 5 6 7 8 11 11 15 17 20 18 17 10 18 24 20 25 40 51 62 100 100 100 100
44 40 37 33 30 24 20 17 16 16 14 13 11 12 16 13 12 11 9 8 7 8 8 8 14 19 21 23 25 23 21 20 18 30 34 31 38 56 90 100 100 100 100
27 25 24 22 20 19 17 15 13 12 11 13 18 17 14 14 13 10 10 11 10 12 14 15 19 23 27 20 21 29 29 26 30 29 44 59 57 62 76 90 100 100 100
26 23 21 19 17 15 14 13 13 15 20 22 21 19 17 18 16 13 13 15 16 16 21 26 29 28 21 21 22 30 38 35 38 39 41 53 68 80 92 95 90 100 98
25 22 19 18 16 16 23 26 31 32 30 26 24 24 26 23 22 22 22 24 24 27 31 32 27 23 24 25 28 34 44 49 49 52 59 55 66 82 93 96 100 98 99
22 19 19 23 36 43 41 38 38 37 36 35 32 30 32 30 31 27 28 31 33 34 33 28 28 27 27 26 31 33 34 35 40 52 58 71 81 87 95 98 94 86 58
22 28 39 50 50 46 42 41 40 39 39 41 39 34 36 39 38 36 39 39 38 35 30 32 30 30 30 26 29 31 34 35 34 33 34 33 31 31 32 31 31 32 33
53 61 61 57 51 47 45 45 45 43 43 48 44 42 50 48 49 48 47 43 33 32 35 34 33 34 34 28 30 31 30 32 34 32 33 32 32 33 36 38 39 40 41
62 51 46 40 34 30 29 32 31 36 48 51 55 56 54 56 58 54 56 36 37 40 37 36 37 40 36 32 32 32 33 35 36 38 37 36 36 37 38 39 40 42 42
57 54 48 43 40 38 38 41 48 57 61 60 65 66 67 62 60 65 41 42 46 42 40 41 42 42 40 37 35 35 35 36 37 37 36 36 38 38 40 41 42 42 43
60 59 59 55 53 49 44 46 47 51 65 69 70 76 72 66 56 39 44 52 52 47 46 48 49 48 45 41 40 39 38 37 36 37 40 42 42 42 42 43 42 42 42
73 70 64 61 62 60 56 55 54 56 63 70 72 68 74 52 42 52 61 60 58 58 57 57 55 54 53 50 47 46 42 42 44 47 49 47 46 42 40 40 42 42 41
81 76 70 66 69 66 66 61 67 70 72 73 73 63 50 49 58 69 72 74 73 71 68 66 63 61 58 56 53 54 55 51 52 53 51 48 44 43 42 42 42 40 39
85 81 79 77 75 77 74 71 75 71 75 79 78 58 57 67 77 82 85 84 82 81 80 78 75 72 68 65 63 63 64 62 60 57 52 49 46 45 44 44 42 40 38

GFSMW_500_rhum_072.txt.gz
RH
67 46 40 34 30 28 27 25 23 22 19 16 15 14 14 15 18 26 34 40 36 50 38 39 18 15 13 17 33 37 38 44 54 40 46 50 50 56 44 38 46 59 94
81 60 44 42 39 35 31 28 24 22 21 21 19 17 17 16 15 14 20 18 26 30 24 12 9 9 9 10 18 13 37 52 65 62 54 52 51 69 75 67 68 73 81
74 71 52 42 39 37 34 31 28 25 22 20 20 21 21 19 18 18 16 13 10 8 7 7 8 9 10 9 8 7 14 39 50 52 56 61 52 55 58 65 72 86 92
72 73 66 47 40 36 33 30 28 28 30 29 32 33 27 20 17 14 11 13 12 10 9 8 9 9 9 8 8 9 26 43 44 57 68 77 67 58 61 68 87 92 96
76 70 74 61 46 41 38 38 42 42 38 34 26 22 16 11 8 7 7 8 9 9 10 10 10 8 7 8 12 15 13 11 12 17 28 28 31 31 45 41 47 67 76
70 76 73 73 70 65 64 62 64 64 60 50 32 14 17 10 12 15 11 10 10 11 11 10 9 9 11 14 16 11 9 10 11 9 7 10 15 20 26 32 34 40 55
66 70 74 71 68 61 58 54 31 19 19 14 12 15 18 17 16 13 11 10 9 10 9 10 11 14 13 11 10 10 9 6 4 4 8 9 12 14 16 20 24 35 48
84 84 73 70 57 31 23 18 17 19 26 25 24 18 14 12 11 10 9 9 9 9 10 13 15 11 11 11 10 8 6 5 7 9 8 8 11 15 17 19 30 38 44
95 81 67 58 25 20 19 18 24 31 29 22 15 13 12 11 11 10 10 10 10 11 13 16 11 10 10 9 6 4 5 8 11 12 14 12 14 13 12 19 20 47 70
39 69 57 36 32 32 32 29 26 25 21 18 16 13 12 11 11 11 11 11 12 15 15 10 9 8 6 5 4 6 8 9 13 10 11 7 10 13 19 17 21 38 58
50 47 52 52 47 41 42 41 40 34 23 16 14 12 12 12 12 11 11 13 15 12 10 8 8 5 4 4 5 8 12 13 12 12 9 10 12 22 21 21 24 34 53
86 64 62 51 40 33 33 35 21 18 18 19 16 14 14 13 12 13 15 13 13 12 10 10 6 5 6 5 8 13 16 18 19 21 18 15 13 20 21 30 26 30 56
70 54 46 50 45 35 31 31 37 34 36 33 23 19 15 14 15 15 12 15 14 12 12 7 6 7 7 8 14 18 20 19 18 18 25 23 19 23 24 38 46 38 63
89 83 75 53 44 47 47 46 46 46 38 26 19 16 15 15 14 12 17 14 13 12 10 8 8 10 12 16 21 24 20 20 20 22 31 28 26 27 29 39 46 74 77
66 61 54 46 44 52 52 43 37 27 20 17 16 14 12 14 19 19 15 15 12 10 11 11 13 15 21 25 26 22 22 20 20 27 43 36 39 39 34 40 55 63 72
56 38 30 28 26 24 22 20 19 17 15 14 14 15 22 25 21 19 18 17 13 13 15 20 20 22 27 27 24 25 23 20 21 30 40 49 50 47 48 45 56 66 75
36 32 29 26 24 22 19 17 16 15 18 22 26 31 31 27 24 23 22 22 20 22 20 22 25 31 30 26 27 25 22 22 24 30 33 32 29 29 38 50 54 62 63
67 34 28 24 22 20 19 23 27 35 36 36 36 35 34 32 30 30 31 29 29 26 26 33 34 33 29 29 28 27 24 24 22 24 25 26 26 26 25 24 25 26 25
34 28 23 23 24 23 30 42 47 45 43 42 42 43 42 39 34 32 34 36 36 37 40 40 34 32 32 31 30 30 24 24 24 24 25 25 26 26 24 25 27 29 31
26 28 36 50 53 50 56 54 50 47 46 45 44 45 48 44 41 47 49 50 50 49 41 34 36 35 34 33 33 32 29 26 25 25 26 27 27 28 29 31 33 33 33
37 57 65 64 60 58 53 47 41 37 36 35 41 46 50 55 59 56 57 64 61 56 37 40 40 39 37 37 36 35 32 31 30 30 30 31 32 33 34 37 38 38 36
64 76 68 55 53 48 43 41 40 38 43 47 51 57 62 64 70 70 70 74 66 42 43 46 46 44 45 44 43 42 39 37 36 34 34 36 38 42 44 43 41 37 35
90 77 62 59 61 55 54 50 43 39 40 48 61 69 69 74 78 77 77 52 44 53 55 53 53 54 54 53 51 49 47 47 46 47 45 44 47 49 47 43 39 35 33
89 76 73 71 72 66 59 56 55 48 48 56 64 68 74 73 71 75 80 53 61 63 64 68 68 68 66 64 63 62 59 58 56 56 58 58 57 53 48 44 39 37 39
99 90 88 89 84 71 62 60 63 61 62 65 66 72 75 71 55 56 59 66 74 77 78 77 77 81 80 79 77 76 71 65 65 66 67 66 64 57 52 43 41 42 44
100 93 89 83 77 77 76 72 78 75 74 68 76 79 80 72 56 60 71 82 90 94 90 84 86 86 86 86 88 88 84 74 73 74 74 72 69 61 55 48 48 50 53